| time (UTC) | temp C | wind direction | speed KPH | gust KPH | rain 1hr cm | rain 24hr cm | rain mn cm | humidity % | barometer mb |
| 20260505040411 | 16 | 238 | 6.4 | 17.7 | 0.00 | 0.00 | 0.00 | 51 | 1014.6 |
| 20260505040311 | 16 | 131 | 6.4 | 17.7 | 0.00 | 0.00 | 0.00 | 51 | 1014.6 |
| 20260505040211 | 17 | 263 | 6.4 | 17.7 | 0.00 | 0.00 | 0.00 | 51 | 1014.7 |
| 20260505040107 | 16 | 214 | 6.4 | 17.7 | 0.00 | 0.00 | 0.00 | 51 | 1014.7 |
| 20260505040004 | 17 | 165 | 6.4 | 17.7 | 0.00 | 0.00 | 0.00 | 51 | 1014.7 |
| 20260505035903 | 16 | 117 | 6.4 | 17.7 | 0.00 | 0.00 | 0.00 | 52 | 1014.8 |
| 20260505035802 | 16 | 133 | 6.4 | 17.7 | 0.00 | 0.00 | 0.00 | 51 | 1014.7 |
| 20260505035703 | 16 | 96 | 6.4 | 17.7 | 0.00 | 0.00 | 0.00 | 51 | 1014.6 |
| 20260505035602 | 17 | 172 | 6.4 | 17.7 | 0.00 | 0.00 | 0.00 | 52 | 1014.7 |
| 20260505035503 | 17 | 188 | 6.4 | 17.7 | 0.00 | 0.00 | 0.00 | 51 | 1014.6 |
| 20260505035402 | 17 | 159 | 6.4 | 17.7 | 0.00 | 0.00 | 0.00 | 52 | 1014.7 |
| 20260505035304 | 17 | 137 | 6.4 | 17.7 | 0.00 | 0.00 | 0.00 | 52 | 1014.7 |
| 20260505035202 | 17 | 241 | 6.4 | 17.7 | 0.00 | 0.00 | 0.00 | 51 | 1014.7 |
| 20260505035103 | 17 | 148 | 6.4 | 17.7 | 0.00 | 0.00 | 0.00 | 52 | 1014.9 |
| 20260505035004 | 16 | 177 | 6.4 | 19.3 | 0.00 | 0.00 | 0.00 | 51 | 1014.8 |
| 20260505034903 | 17 | 269 | 6.4 | 19.3 | 0.00 | 0.00 | 0.00 | 51 | 1014.8 |
| 20260505034804 | 16 | 223 | 6.4 | 19.3 | 0.00 | 0.00 | 0.00 | 52 | 1014.8 |
| 20260505034703 | 16 | 204 | 6.4 | 19.3 | 0.00 | 0.00 | 0.00 | 52 | 1014.8 |
| 20260505034603 | 16 | 160 | 6.4 | 19.3 | 0.00 | 0.00 | 0.00 | 52 | 1014.9 |
| 20260505034504 | 16 | 182 | 6.4 | 19.3 | 0.00 | 0.00 | 0.00 | 52 | 1014.9 |
| 20260505034357 | 17 | 132 | 6.4 | 19.3 | 0.00 | 0.00 | 0.00 | 52 | 1014.8 |
| 20260505034256 | 17 | 113 | 6.4 | 19.3 | 0.00 | 0.00 | 0.00 | 52 | 1014.9 |
| 20260505034158 | 17 | 138 | 6.4 | 19.3 | 0.00 | 0.00 | 0.00 | 52 | 1014.8 |
| 20260505034058 | 17 | 161 | 6.4 | 19.3 | 0.00 | 0.00 | 0.00 | 52 | 1014.8 |
| 20260505033958 | 17 | 138 | 6.4 | 17.7 | 0.00 | 0.00 | 0.00 | 52 | 1014.8 |
| 20260505033858 | 17 | 163 | 6.4 | 20.9 | 0.00 | 0.00 | 0.00 | 52 | 1014.8 |
| 20260505033757 | 17 | 153 | 6.4 | 20.9 | 0.00 | 0.00 | 0.00 | 52 | 1014.7 |
| 20260505033656 | 17 | 167 | 6.4 | 20.9 | 0.00 | 0.00 | 0.00 | 52 | 1014.8 |
| 20260505033558 | 17 | 120 | 6.4 | 20.9 | 0.00 | 0.00 | 0.00 | 52 | 1014.8 |
| 20260505033457 | 17 | 165 | 6.4 | 20.9 | 0.00 | 0.00 | 0.00 | 51 | 1014.8 |
| 20260505033355 | 17 | 122 | 6.4 | 20.9 | 0.00 | 0.00 | 0.00 | 52 | 1014.7 |
| 20260505033255 | 17 | 162 | 4.8 | 20.9 | 0.00 | 0.00 | 0.00 | 52 | 1014.8 |
| 20260505033155 | 17 | 222 | 4.8 | 20.9 | 0.00 | 0.00 | 0.00 | 52 | 1014.9 |
| 20260505033055 | 17 | 157 | 4.8 | 20.9 | 0.00 | 0.00 | 0.00 | 51 | 1014.9 |
| 20260505032954 | 17 | 128 | 4.8 | 20.9 | 0.00 | 0.00 | 0.00 | 51 | 1014.8 |
| 20260505032854 | 17 | 120 | 4.8 | 12.9 | 0.00 | 0.00 | 0.00 | 52 | 1014.9 |
| 20260505032755 | 17 | 245 | 4.8 | 12.9 | 0.00 | 0.00 | 0.00 | 52 | 1015.0 |
| 20260505032650 | 17 | 146 | 4.8 | 14.5 | 0.00 | 0.00 | 0.00 | 51 | 1015.0 |
| 20260505032549 | 17 | 140 | 4.8 | 14.5 | 0.00 | 0.00 | 0.00 | 51 | 1015.1 |
| 20260505032446 | 17 | 143 | 4.8 | 14.5 | 0.00 | 0.00 | 0.00 | 51 | 1015.1 |
| 20260505032348 | 17 | 292 | 4.8 | 14.5 | 0.00 | 0.00 | 0.00 | 51 | 1015.1 |
| 20260505032247 | 17 | 151 | 6.4 | 22.5 | 0.00 | 0.00 | 0.00 | 51 | 1015.1 |
| 20260505032143 | 17 | 150 | 6.4 | 22.5 | 0.00 | 0.00 | 0.00 | 51 | 1015.1 |
| 20260505032040 | 17 | 132 | 6.4 | 22.5 | 0.00 | 0.00 | 0.00 | 51 | 1015.1 |
| 20260505031942 | 17 | 169 | 6.4 | 22.5 | 0.00 | 0.00 | 0.00 | 51 | 1015.3 |
| 20260505031841 | 17 | 141 | 6.4 | 22.5 | 0.00 | 0.00 | 0.00 | 51 | 1015.1 |
| 20260505031741 | 17 | 135 | 6.4 | 22.5 | 0.00 | 0.00 | 0.00 | 51 | 1015.3 |
| 20260505031635 | 17 | 185 | 6.4 | 22.5 | 0.00 | 0.00 | 0.00 | 51 | 1015.1 |
| 20260505031535 | 17 | 130 | 6.4 | 22.5 | 0.00 | 0.00 | 0.00 | 51 | 1015.1 |
| 20260505031435 | 17 | 153 | 6.4 | 22.5 | 0.00 | 0.00 | 0.00 | 51 | 1015.1 |
| 20260505031334 | 17 | 209 | 6.4 | 22.5 | 0.00 | 0.00 | 0.00 | 51 | 1015.1 |
| 20260505031231 | 17 | 181 | 6.4 | 24.1 | 0.00 | 0.00 | 0.00 | 51 | 1015.1 |
| 20260505031125 | 17 | 190 | 6.4 | 24.1 | 0.00 | 0.00 | 0.00 | 51 | 1015.3 |
| 20260505031025 | 17 | 142 | 8.0 | 24.1 | 0.00 | 0.00 | 0.00 | 51 | 1015.3 |
| 20260505030926 | 17 | 142 | 8.0 | 24.1 | 0.00 | 0.00 | 0.00 | 51 | 1015.1 |
| 20260505030825 | 17 | 118 | 6.4 | 24.1 | 0.00 | 0.00 | 0.00 | 52 | 1015.1 |
| 20260505030726 | 17 | 162 | 6.4 | 24.1 | 0.00 | 0.00 | 0.00 | 52 | 1015.1 |
| 20260505030624 | 17 | 137 | 6.4 | 24.1 | 0.00 | 0.00 | 0.00 | 52 | 1015.1 |
| 20260505030522 | 17 | 169 | 6.4 | 24.1 | 0.00 | 0.00 | 0.00 | 52 | 1015.1 |
| 20260505030422 | 17 | 82 | 8.0 | 24.1 | 0.00 | 0.00 | 0.00 | 51 | 1015.1 |
| 20260505030323 | 17 | 221 | 6.4 | 24.1 | 0.00 | 0.00 | 0.00 | 52 | 1015.1 |
| 20260505030223 | 17 | 157 | 6.4 | 20.9 | 0.00 | 0.00 | 0.00 | 52 | 1015.1 |
| 20260505030123 | 17 | 157 | 6.4 | 22.5 | 0.00 | 0.00 | 0.00 | 52 | 1015.1 |
| 20260505030023 | 17 | 105 | 6.4 | 22.5 | 0.00 | 0.00 | 0.00 | 51 | 1015.3 |
| 20260505025923 | 17 | 243 | 6.4 | 22.5 | 0.00 | 0.00 | 0.00 | 52 | 1015.3 |
| 20260505025823 | 17 | 161 | 6.4 | 22.5 | 0.00 | 0.00 | 0.00 | 52 | 1015.3 |
| 20260505025724 | 17 | 192 | 6.4 | 22.5 | 0.00 | 0.00 | 0.00 | 52 | 1015.3 |
| 20260505025623 | 17 | 167 | 6.4 | 22.5 | 0.00 | 0.00 | 0.00 | 52 | 1015.3 |
| 20260505025524 | 17 | 207 | 6.4 | 22.5 | 0.00 | 0.00 | 0.00 | 52 | 1015.1 |
| 20260505025422 | 17 | 159 | 6.4 | 22.5 | 0.00 | 0.00 | 0.00 | 52 | 1015.3 |
| 20260505025321 | 17 | 157 | 6.4 | 22.5 | 0.00 | 0.00 | 0.00 | 52 | 1015.3 |
| 20260505025220 | 17 | 142 | 6.4 | 22.5 | 0.00 | 0.00 | 0.00 | 52 | 1015.3 |
| 20260505025122 | 16 | 78 | 6.4 | 19.3 | 0.00 | 0.00 | 0.00 | 52 | 1015.3 |
| 20260505025018 | 16 | 191 | 8.0 | 24.1 | 0.00 | 0.00 | 0.00 | 52 | 1015.3 |
| 20260505024919 | 16 | 128 | 8.0 | 24.1 | 0.00 | 0.00 | 0.00 | 52 | 1015.3 |
| 20260505024819 | 16 | 121 | 8.0 | 24.1 | 0.00 | 0.00 | 0.00 | 52 | 1015.3 |
| 20260505024718 | 16 | 159 | 8.0 | 24.1 | 0.00 | 0.00 | 0.00 | 52 | 1015.3 |
| 20260505024619 | 16 | 195 | 8.0 | 24.1 | 0.00 | 0.00 | 0.00 | 52 | 1015.3 |
| 20260505024520 | 16 | 173 | 6.4 | 24.1 | 0.00 | 0.00 | 0.00 | 52 | 1015.3 |
| 20260505024419 | 16 | 160 | 6.4 | 24.1 | 0.00 | 0.00 | 0.00 | 52 | 1015.3 |
| 20260505024319 | 16 | 146 | 8.0 | 24.1 | 0.00 | 0.00 | 0.00 | 52 | 1015.3 |
| 20260505024214 | 16 | 190 | 8.0 | 24.1 | 0.00 | 0.00 | 0.00 | 51 | 1015.4 |
| 20260505024115 | 16 | 147 | 8.0 | 24.1 | 0.00 | 0.00 | 0.00 | 52 | 1015.3 |
| 20260505024015 | 16 | 164 | 6.4 | 20.9 | 0.00 | 0.00 | 0.00 | 52 | 1015.3 |
| 20260505023913 | 16 | 159 | 8.0 | 20.9 | 0.00 | 0.00 | 0.00 | 52 | 1015.3 |
| 20260505023812 | 16 | 185 | 8.0 | 20.9 | 0.00 | 0.00 | 0.00 | 52 | 1015.3 |
| 20260505023712 | 16 | 121 | 8.0 | 20.9 | 0.00 | 0.00 | 0.00 | 52 | 1015.3 |
| 20260505023611 | 16 | 135 | 8.0 | 20.9 | 0.00 | 0.00 | 0.00 | 52 | 1015.4 |
| 20260505023512 | 16 | 117 | 8.0 | 20.9 | 0.00 | 0.00 | 0.00 | 52 | 1015.3 |
| 20260505023411 | 16 | 184 | 8.0 | 19.3 | 0.00 | 0.00 | 0.00 | 52 | 1015.3 |
| 20260505023310 | 16 | 128 | 8.0 | 19.3 | 0.00 | 0.00 | 0.00 | 52 | 1015.3 |
| 20260505023211 | 16 | 149 | 8.0 | 19.3 | 0.00 | 0.00 | 0.00 | 52 | 1015.1 |
| 20260505023112 | 16 | 157 | 8.0 | 19.3 | 0.00 | 0.00 | 0.00 | 51 | 1015.3 |
| 20260505023003 | 16 | 157 | 8.0 | 19.3 | 0.00 | 0.00 | 0.00 | 51 | 1015.3 |
| 20260505022903 | 16 | 152 | 8.0 | 19.3 | 0.00 | 0.00 | 0.00 | 51 | 1015.3 |
| 20260505022803 | 16 | 134 | 8.0 | 16.1 | 0.00 | 0.00 | 0.00 | 52 | 1015.3 |
| 20260505022702 | 16 | 182 | 8.0 | 16.1 | 0.00 | 0.00 | 0.00 | 52 | 1015.3 |
| 20260505022603 | 16 | 152 | 8.0 | 16.1 | 0.00 | 0.00 | 0.00 | 52 | 1015.3 |
| 20260505022504 | 16 | 114 | 8.0 | 16.1 | 0.00 | 0.00 | 0.00 | 52 | 1015.3 |
| 20260505022402 | 16 | 204 | 8.0 | 16.1 | 0.00 | 0.00 | 0.00 | 52 | 1015.4 |
| 20260505022304 | 16 | 163 | 8.0 | 16.1 | 0.00 | 0.00 | 0.00 | 52 | 1015.3 |
| 20260505022202 | 16 | 144 | 8.0 | 17.7 | 0.00 | 0.00 | 0.00 | 51 | 1015.3 |
| 20260505022103 | 16 | 172 | 8.0 | 17.7 | 0.00 | 0.00 | 0.00 | 52 | 1015.3 |
| 20260505022003 | 16 | 175 | 6.4 | 17.7 | 0.00 | 0.00 | 0.00 | 52 | 1015.3 |
| 20260505021903 | 16 | 138 | 6.4 | 17.7 | 0.00 | 0.00 | 0.00 | 51 | 1015.4 |
| 20260505021804 | 16 | 134 | 6.4 | 17.7 | 0.00 | 0.00 | 0.00 | 51 | 1015.3 |
| 20260505021703 | 16 | 162 | 6.4 | 17.7 | 0.00 | 0.00 | 0.00 | 52 | 1015.4 |
| 20260505021603 | 16 | 142 | 6.4 | 17.7 | 0.00 | 0.00 | 0.00 | 52 | 1015.3 |
| 20260505021502 | 16 | 137 | 6.4 | 17.7 | 0.00 | 0.00 | 0.00 | 52 | 1015.3 |
| 20260505021402 | 16 | 166 | 6.4 | 17.7 | 0.00 | 0.00 | 0.00 | 51 | 1015.3 |
| 20260505021302 | 16 | 143 | 6.4 | 17.7 | 0.00 | 0.00 | 0.00 | 52 | 1015.4 |
| 20260505021202 | 16 | 178 | 6.4 | 14.5 | 0.00 | 0.00 | 0.00 | 52 | 1015.4 |
| 20260505021102 | 16 | 178 | 6.4 | 14.5 | 0.00 | 0.00 | 0.00 | 52 | 1015.1 |
| 20260505021003 | 16 | 163 | 6.4 | 14.5 | 0.00 | 0.00 | 0.00 | 52 | 1015.3 |
| 20260505020904 | 16 | 156 | 6.4 | 14.5 | 0.00 | 0.00 | 0.00 | 52 | 1015.3 |
| 20260505020802 | 16 | 167 | 6.4 | 14.5 | 0.00 | 0.00 | 0.00 | 52 | 1015.3 |
| 20260505020703 | 16 | 161 | 6.4 | 14.5 | 0.00 | 0.00 | 0.00 | 52 | 1015.4 |
| 20260505020602 | 16 | 161 | 6.4 | 14.5 | 0.00 | 0.00 | 0.00 | 52 | 1015.3 |
| 20260505020504 | 16 | 157 | 6.4 | 12.9 | 0.00 | 0.00 | 0.00 | 52 | 1015.3 |
| 20260505020402 | 16 | 161 | 6.4 | 12.9 | 0.00 | 0.00 | 0.00 | 52 | 1015.3 |
| 20260505020302 | 16 | 155 | 6.4 | 11.3 | 0.00 | 0.00 | 0.00 | 52 | 1015.3 |
| 20260505020203 | 16 | 154 | 6.4 | 11.3 | 0.00 | 0.00 | 0.00 | 52 | 1015.3 |
| 20260505020004 | 16 | 149 | 6.4 | 12.9 | 0.00 | 0.00 | 0.00 | 52 | 1015.3 |
| 20260505015904 | 16 | 159 | 6.4 | 12.9 | 0.00 | 0.00 | 0.00 | 52 | 1015.3 |
| 20260505015804 | 16 | 156 | 6.4 | 12.9 | 0.00 | 0.00 | 0.00 | 52 | 1015.1 |
| 20260505015659 | 16 | 130 | 6.4 | 12.9 | 0.00 | 0.00 | 0.00 | 52 | 1015.3 |
| 20260505015558 | 16 | 144 | 6.4 | 12.9 | 0.00 | 0.00 | 0.00 | 52 | 1015.1 |
| 20260505015459 | 16 | 159 | 6.4 | 12.9 | 0.00 | 0.00 | 0.00 | 52 | 1015.3 |
| 20260505015358 | 16 | 147 | 6.4 | 12.9 | 0.00 | 0.00 | 0.00 | 52 | 1015.1 |
| 20260505015259 | 16 | 148 | 6.4 | 12.9 | 0.00 | 0.00 | 0.00 | 51 | 1015.3 |
| 20260505015200 | 16 | 163 | 6.4 | 12.9 | 0.00 | 0.00 | 0.00 | 52 | 1015.1 |
| 20260505015058 | 16 | 155 | 6.4 | 12.9 | 0.00 | 0.00 | 0.00 | 52 | 1015.1 |
| 20260505015000 | 16 | 171 | 6.4 | 12.9 | 0.00 | 0.00 | 0.00 | 52 | 1015.3 |
| 20260505014859 | 16 | 157 | 6.4 | 11.3 | 0.00 | 0.00 | 0.00 | 52 | 1015.1 |
| 20260505014759 | 16 | 171 | 6.4 | 11.3 | 0.00 | 0.00 | 0.00 | 52 | 1015.3 |
| 20260505014700 | 16 | 150 | 6.4 | 11.3 | 0.00 | 0.00 | 0.00 | 52 | 1015.1 |
| 20260505014559 | 16 | 150 | 6.4 | 11.3 | 0.00 | 0.00 | 0.00 | 52 | 1015.1 |
| 20260505014458 | 16 | 148 | 6.4 | 11.3 | 0.00 | 0.00 | 0.00 | 52 | 1015.1 |
| 20260505014359 | 16 | 158 | 6.4 | 14.5 | 0.00 | 0.00 | 0.00 | 51 | 1015.0 |
| 20260505014259 | 16 | 155 | 6.4 | 14.5 | 0.00 | 0.00 | 0.00 | 52 | 1015.1 |
| 20260505014159 | 16 | 164 | 6.4 | 14.5 | 0.00 | 0.00 | 0.00 | 52 | 1015.0 |
| 20260505014058 | 16 | 186 | 6.4 | 14.5 | 0.00 | 0.00 | 0.00 | 52 | 1015.1 |
| 20260505014000 | 16 | 167 | 6.4 | 14.5 | 0.00 | 0.00 | 0.00 | 51 | 1015.0 |
| 20260505013858 | 16 | 162 | 6.4 | 14.5 | 0.00 | 0.00 | 0.00 | 51 | 1015.0 |
| 20260505013759 | 16 | 164 | 6.4 | 14.5 | 0.00 | 0.00 | 0.00 | 52 | 1015.1 |
| 20260505013658 | 16 | 167 | 6.4 | 14.5 | 0.00 | 0.00 | 0.00 | 51 | 1015.1 |
| 20260505013558 | 16 | 171 | 6.4 | 14.5 | 0.00 | 0.00 | 0.00 | 51 | 1015.0 |
| 20260505013500 | 16 | 178 | 6.4 | 14.5 | 0.00 | 0.00 | 0.00 | 51 | 1015.1 |
| 20260505013358 | 16 | 153 | 6.4 | 11.3 | 0.00 | 0.00 | 0.00 | 51 | 1015.1 |
| 20260505013258 | 16 | 165 | 6.4 | 11.3 | 0.00 | 0.00 | 0.00 | 51 | 1015.0 |
| 20260505013200 | 16 | 150 | 6.4 | 11.3 | 0.00 | 0.00 | 0.00 | 51 | 1015.0 |
| 20260505013058 | 17 | 171 | 6.4 | 11.3 | 0.00 | 0.00 | 0.00 | 51 | 1015.0 |
| 20260505012958 | 17 | 171 | 6.4 | 11.3 | 0.00 | 0.00 | 0.00 | 51 | 1015.0 |
| 20260505012859 | 17 | 181 | 6.4 | 11.3 | 0.00 | 0.00 | 0.00 | 51 | 1015.0 |
| 20260505012758 | 17 | 160 | 6.4 | 11.3 | 0.00 | 0.00 | 0.00 | 51 | 1014.9 |
| 20260505012659 | 17 | 160 | 6.4 | 11.3 | 0.00 | 0.00 | 0.00 | 51 | 1014.9 |
| 20260505012558 | 17 | 159 | 6.4 | 12.9 | 0.00 | 0.00 | 0.00 | 51 | 1014.8 |
| 20260505012459 | 17 | 159 | 6.4 | 12.9 | 0.00 | 0.00 | 0.00 | 50 | 1014.8 |
| 20260505012355 | 17 | 163 | 6.4 | 12.9 | 0.00 | 0.00 | 0.00 | 51 | 1014.9 |
| 20260505012254 | 17 | 154 | 6.4 | 12.9 | 0.00 | 0.00 | 0.00 | 50 | 1014.9 |
| 20260505012155 | 17 | 153 | 6.4 | 12.9 | 0.00 | 0.00 | 0.00 | 50 | 1014.9 |
| 20260505012055 | 17 | 160 | 6.4 | 12.9 | 0.00 | 0.00 | 0.00 | 50 | 1014.8 |
| 20260505011955 | 17 | 147 | 6.4 | 12.9 | 0.00 | 0.00 | 0.00 | 50 | 1014.8 |
| 20260505011854 | 17 | 165 | 6.4 | 12.9 | 0.00 | 0.00 | 0.00 | 50 | 1014.8 |
| 20260505011754 | 17 | 157 | 6.4 | 12.9 | 0.00 | 0.00 | 0.00 | 50 | 1014.9 |
| 20260505011655 | 17 | 153 | 6.4 | 12.9 | 0.00 | 0.00 | 0.00 | 50 | 1015.0 |
| 20260505011555 | 17 | 153 | 6.4 | 12.9 | 0.00 | 0.00 | 0.00 | 50 | 1014.9 |
| 20260505011455 | 17 | 148 | 6.4 | 14.5 | 0.00 | 0.00 | 0.00 | 50 | 1014.9 |
| 20260505011354 | 17 | 188 | 6.4 | 14.5 | 0.00 | 0.00 | 0.00 | 50 | 1014.9 |
| 20260505011254 | 17 | 142 | 6.4 | 14.5 | 0.00 | 0.00 | 0.00 | 50 | 1014.8 |
| 20260505011154 | 17 | 148 | 6.4 | 14.5 | 0.00 | 0.00 | 0.00 | 50 | 1014.9 |
| 20260505011054 | 17 | 159 | 6.4 | 14.5 | 0.00 | 0.00 | 0.00 | 50 | 1014.8 |
| 20260505010955 | 17 | 161 | 6.4 | 14.5 | 0.00 | 0.00 | 0.00 | 50 | 1014.8 |
| 20260505010855 | 17 | 170 | 6.4 | 14.5 | 0.00 | 0.00 | 0.00 | 50 | 1014.8 |
| 20260505010754 | 17 | 166 | 6.4 | 14.5 | 0.00 | 0.00 | 0.00 | 50 | 1014.8 |
| 20260505010655 | 17 | 181 | 6.4 | 14.5 | 0.00 | 0.00 | 0.00 | 50 | 1014.8 |
| 20260505010554 | 17 | 161 | 4.8 | 14.5 | 0.00 | 0.00 | 0.00 | 50 | 1014.7 |
| 20260505010455 | 17 | 155 | 4.8 | 12.9 | 0.00 | 0.00 | 0.00 | 50 | 1014.8 |
| 20260505010354 | 17 | 146 | 4.8 | 11.3 | 0.00 | 0.00 | 0.00 | 50 | 1014.7 |
| 20260505010255 | 17 | 144 | 4.8 | 11.3 | 0.00 | 0.00 | 0.00 | 49 | 1014.8 |
| 20260505010154 | 17 | 155 | 4.8 | 11.3 | 0.00 | 0.00 | 0.00 | 50 | 1014.8 |
| 20260505010054 | 17 | 184 | 4.8 | 11.3 | 0.00 | 0.00 | 0.00 | 50 | 1014.8 |
| 20260505005956 | 17 | 165 | 3.2 | 11.3 | 0.00 | 0.00 | 0.00 | 49 | 1014.8 |
| 20260505005855 | 17 | 145 | 3.2 | 11.3 | 0.00 | 0.00 | 0.00 | 49 | 1014.8 |
| 20260505005755 | 17 | 185 | 3.2 | 11.3 | 0.00 | 0.00 | 0.00 | 49 | 1014.8 |
| 20260505005655 | 17 | 164 | 3.2 | 11.3 | 0.00 | 0.00 | 0.00 | 49 | 1014.7 |
| 20260505005555 | 17 | 164 | 3.2 | 11.3 | 0.00 | 0.00 | 0.00 | 49 | 1014.8 |
| 20260505005454 | 17 | 164 | 3.2 | 11.3 | 0.00 | 0.00 | 0.00 | 49 | 1014.7 |
| 20260505005355 | 17 | 164 | 3.2 | 11.3 | 0.00 | 0.00 | 0.00 | 49 | 1014.6 |
| 20260505005254 | 17 | 165 | 3.2 | 11.3 | 0.00 | 0.00 | 0.00 | 49 | 1014.7 |
| 20260505005156 | 17 | 173 | 3.2 | 9.7 | 0.00 | 0.00 | 0.00 | 48 | 1014.7 |
| 20260505005050 | 17 | 175 | 3.2 | 9.7 | 0.00 | 0.00 | 0.00 | 49 | 1014.7 |
| 20260505004951 | 17 | 175 | 3.2 | 9.7 | 0.00 | 0.00 | 0.00 | 49 | 1014.7 |
| 20260505004850 | 17 | 175 | 3.2 | 9.7 | 0.00 | 0.00 | 0.00 | 49 | 1014.6 |
| 20260505004750 | 17 | 175 | 3.2 | 9.7 | 0.00 | 0.00 | 0.00 | 48 | 1014.7 |
| 20260505004652 | 17 | 175 | 3.2 | 9.7 | 0.00 | 0.00 | 0.00 | 48 | 1014.6 |
| 20260505004550 | 17 | 169 | 3.2 | 9.7 | 0.00 | 0.00 | 0.00 | 48 | 1014.6 |
| 20260505004451 | 17 | 196 | 3.2 | 8.0 | 0.00 | 0.00 | 0.00 | 48 | 1014.6 |
| 20260505004350 | 17 | 192 | 3.2 | 8.0 | 0.00 | 0.00 | 0.00 | 49 | 1014.6 |
| 20260505004250 | 17 | 178 | 3.2 | 8.0 | 0.00 | 0.00 | 0.00 | 49 | 1014.6 |
| 20260505004150 | 17 | 178 | 3.2 | 8.0 | 0.00 | 0.00 | 0.00 | 49 | 1014.6 |
| 20260505004050 | 18 | 178 | 3.2 | 8.0 | 0.00 | 0.00 | 0.00 | 48 | 1014.5 |
| 20260505003952 | 18 | 182 | 4.8 | 8.0 | 0.00 | 0.00 | 0.00 | 48 | 1014.6 |
| 20260505003850 | 18 | 182 | 4.8 | 8.0 | 0.00 | 0.00 | 0.00 | 48 | 1014.6 |
| 20260505003752 | 18 | 188 | 4.8 | 8.0 | 0.00 | 0.00 | 0.00 | 48 | 1014.5 |
| 20260505003650 | 18 | 188 | 4.8 | 8.0 | 0.00 | 0.00 | 0.00 | 48 | 1014.5 |
| 20260505003550 | 18 | 188 | 4.8 | 8.0 | 0.00 | 0.00 | 0.00 | 48 | 1014.5 |
| 20260505003451 | 18 | 178 | 4.8 | 11.3 | 0.00 | 0.00 | 0.00 | 48 | 1014.5 |
| 20260505003350 | 18 | 178 | 4.8 | 12.9 | 0.00 | 0.00 | 0.00 | 48 | 1014.5 |
| 20260505003250 | 18 | 182 | 4.8 | 12.9 | 0.00 | 0.00 | 0.00 | 48 | 1014.5 |
| 20260505003151 | 18 | 182 | 4.8 | 12.9 | 0.00 | 0.00 | 0.00 | 48 | 1014.5 |
| 20260505003050 | 18 | 193 | 4.8 | 12.9 | 0.00 | 0.00 | 0.00 | 48 | 1014.5 |
| 20260505002951 | 18 | 193 | 4.8 | 12.9 | 0.00 | 0.00 | 0.00 | 48 | 1014.5 |
| 20260505002850 | 18 | 165 | 4.8 | 12.9 | 0.00 | 0.00 | 0.00 | 48 | 1014.4 |
| 20260505002751 | 18 | 148 | 4.8 | 12.9 | 0.00 | 0.00 | 0.00 | 47 | 1014.5 |
| 20260505002650 | 18 | 169 | 4.8 | 12.9 | 0.00 | 0.00 | 0.00 | 48 | 1014.4 |
| 20260505002552 | 18 | 167 | 4.8 | 12.9 | 0.00 | 0.00 | 0.00 | 47 | 1014.4 |
| 20260505002446 | 18 | 174 | 4.8 | 12.9 | 0.00 | 0.00 | 0.00 | 47 | 1014.5 |
| 20260505002344 | 18 | 194 | 6.4 | 11.3 | 0.00 | 0.00 | 0.00 | 47 | 1014.4 |
| 20260505002245 | 18 | 194 | 6.4 | 11.3 | 0.00 | 0.00 | 0.00 | 47 | 1014.4 |
| 20260505002145 | 18 | 184 | 6.4 | 11.3 | 0.00 | 0.00 | 0.00 | 47 | 1014.5 |
| 20260505002045 | 18 | 197 | 6.4 | 11.3 | 0.00 | 0.00 | 0.00 | 47 | 1014.4 |
| 20260505001942 | 18 | 175 | 6.4 | 12.9 | 0.00 | 0.00 | 0.00 | 47 | 1014.4 |
| 20260505001842 | 18 | 164 | 6.4 | 12.9 | 0.00 | 0.00 | 0.00 | 47 | 1014.4 |
| 20260505001741 | 18 | 177 | 6.4 | 12.9 | 0.00 | 0.00 | 0.00 | 47 | 1014.4 |
| 20260505001640 | 18 | 150 | 6.4 | 12.9 | 0.00 | 0.00 | 0.00 | 47 | 1014.4 |
| 20260505001540 | 18 | 169 | 6.4 | 12.9 | 0.00 | 0.00 | 0.00 | 47 | 1014.4 |
| 20260505001442 | 18 | 171 | 4.8 | 12.9 | 0.00 | 0.00 | 0.00 | 47 | 1014.4 |
| 20260505001340 | 18 | 171 | 4.8 | 12.9 | 0.00 | 0.00 | 0.00 | 47 | 1014.4 |
| 20260505001241 | 18 | 155 | 4.8 | 12.9 | 0.00 | 0.00 | 0.00 | 47 | 1014.3 |
| 20260505001140 | 18 | 153 | 4.8 | 12.9 | 0.00 | 0.00 | 0.00 | 47 | 1014.3 |
| 20260505001040 | 18 | 209 | 6.4 | 12.9 | 0.00 | 0.00 | 0.00 | 47 | 1014.4 |
| 20260505000940 | 18 | 163 | 6.4 | 12.9 | 0.00 | 0.00 | 0.00 | 47 | 1014.3 |
| 20260505000840 | 18 | 210 | 6.4 | 12.9 | 0.00 | 0.00 | 0.00 | 47 | 1014.3 |
| 20260505000740 | 18 | 161 | 6.4 | 16.1 | 0.00 | 0.00 | 0.00 | 47 | 1014.4 |
| 20260505000638 | 18 | 184 | 6.4 | 16.1 | 0.00 | 0.00 | 0.00 | 46 | 1014.4 |
| 20260505000539 | 18 | 171 | 6.4 | 16.1 | 0.00 | 0.00 | 0.00 | 47 | 1014.3 |
| 20260505000436 | 18 | 170 | 6.4 | 16.1 | 0.00 | 0.00 | 0.00 | 46 | 1014.3 |
| 20260505000337 | 18 | 176 | 6.4 | 16.1 | 0.00 | 0.00 | 0.00 | 47 | 1014.3 |
| 20260505000234 | 19 | 145 | 6.4 | 16.1 | 0.00 | 0.00 | 0.00 | 46 | 1014.3 |
| 20260505000136 | 19 | 159 | 6.4 | 16.1 | 0.00 | 0.00 | 0.00 | 47 | 1014.3 |
| 20260505000034 | 19 | 154 | 6.4 | 16.1 | 0.00 | 0.00 | 0.00 | 47 | 1014.3 |
| 20260504235934 | 19 | 124 | 6.4 | 16.1 | 0.00 | 0.00 | 0.00 | 46 | 1014.3 |
| 20260504235835 | 19 | 169 | 6.4 | 16.1 | 0.00 | 0.00 | 0.00 | 46 | 1014.2 |
| 20260504235733 | 19 | 196 | 6.4 | 14.5 | 0.00 | 0.00 | 0.00 | 46 | 1014.2 |
| 20260504235632 | 19 | 173 | 6.4 | 14.5 | 0.00 | 0.00 | 0.00 | 47 | 1014.2 |
| 20260504235532 | 19 | 175 | 6.4 | 14.5 | 0.00 | 0.00 | 0.00 | 46 | 1014.1 |
| 20260504235432 | 19 | 136 | 6.4 | 12.9 | 0.00 | 0.00 | 0.00 | 46 | 1014.2 |
| 20260504235332 | 19 | 147 | 4.8 | 12.9 | 0.00 | 0.00 | 0.00 | 46 | 1014.1 |
| 20260504235233 | 19 | 163 | 4.8 | 12.9 | 0.00 | 0.00 | 0.00 | 47 | 1014.1 |
| 20260504235131 | 19 | 170 | 4.8 | 12.9 | 0.00 | 0.00 | 0.00 | 47 | 1014.1 |
| 20260504235030 | 19 | 173 | 4.8 | 12.9 | 0.00 | 0.00 | 0.00 | 47 | 1014.2 |
| 20260504234930 | 19 | 175 | 4.8 | 12.9 | 0.00 | 0.00 | 0.00 | 47 | 1014.1 |
| 20260504234830 | 19 | 181 | 4.8 | 12.9 | 0.00 | 0.00 | 0.00 | 46 | 1014.1 |
| 20260504234731 | 20 | 165 | 4.8 | 12.9 | 0.00 | 0.00 | 0.00 | 46 | 1014.1 |
| 20260504234631 | 20 | 169 | 4.8 | 12.9 | 0.00 | 0.00 | 0.00 | 47 | 1014.1 |
| 20260504234528 | 20 | 151 | 4.8 | 12.9 | 0.00 | 0.00 | 0.00 | 46 | 1014.1 |
| 20260504234430 | 20 | 167 | 3.2 | 9.7 | 0.00 | 0.00 | 0.00 | 46 | 1014.0 |
| 20260504234328 | 20 | 170 | 3.2 | 9.7 | 0.00 | 0.00 | 0.00 | 46 | 1014.0 |
| 20260504234229 | 20 | 171 | 3.2 | 9.7 | 0.00 | 0.00 | 0.00 | 46 | 1014.1 |
| 20260504234126 | 20 | 168 | 1.6 | 9.7 | 0.00 | 0.00 | 0.00 | 46 | 1014.0 |
| 20260504234027 | 20 | 156 | 1.6 | 9.7 | 0.00 | 0.00 | 0.00 | 46 | 1014.1 |
| 20260504233925 | 20 | 159 | 1.6 | 8.0 | 0.00 | 0.00 | 0.00 | 45 | 1014.0 |
| 20260504233824 | 20 | 172 | 1.6 | 8.0 | 0.00 | 0.00 | 0.00 | 45 | 1014.0 |
| 20260504233724 | 20 | 174 | 1.6 | 8.0 | 0.00 | 0.00 | 0.00 | 45 | 1014.0 |
| 20260504233625 | 20 | 173 | 0.0 | 8.0 | 0.00 | 0.00 | 0.00 | 45 | 1014.0 |
| 20260504233525 | 20 | 170 | 0.0 | 6.4 | 0.00 | 0.00 | 0.00 | 45 | 1014.1 |
| 20260504233425 | 20 | 182 | 0.0 | 3.2 | 0.00 | 0.00 | 0.00 | 45 | 1014.0 |
| 20260504233319 | 20 | 136 | 0.0 | 0.0 | 0.00 | 0.00 | 0.00 | 45 | 1013.9 |
| 20260504233218 | 20 | 195 | 0.0 | 0.0 | 0.00 | 0.00 | 0.00 | 45 | 1014.0 |
| 20260504233119 | 20 | 168 | 0.0 | 0.0 | 0.00 | 0.00 | 0.00 | 45 | 1014.0 |
| 20260504233018 | 20 | 183 | 0.0 | 0.0 | 0.00 | 0.00 | 0.00 | 45 | 1014.0 |
| 20260504232919 | 20 | 163 | 0.0 | 0.0 | 0.00 | 0.00 | 0.00 | 44 | 1014.0 |
| 20260504232814 | 20 | 143 | 0.0 | 0.0 | 0.00 | 0.00 | 0.00 | 44 | 1014.0 |
| 20260504232715 | 20 | 171 | 0.0 | 0.0 | 0.00 | 0.00 | 0.00 | 44 | 1014.0 |
| 20260504232614 | 20 | 153 | 0.0 | 0.0 | 0.00 | 0.00 | 0.00 | 44 | 1014.0 |
| 20260504232514 | 20 | 174 | 0.0 | 0.0 | 0.00 | 0.00 | 0.00 | 44 | 1014.0 |
| 20260504232412 | 20 | 150 | 0.0 | 0.0 | 0.00 | 0.00 | 0.00 | 44 | 1014.0 |
| 20260504232303 | 20 | 156 | 0.0 | 0.0 | 0.00 | 0.00 | 0.00 | 45 | 1014.0 |
| 20260504232202 | 20 | 172 | 0.0 | 0.0 | 0.00 | 0.00 | 0.00 | 44 | 1014.0 |
| 20260504232102 | 20 | 170 | 0.0 | 0.0 | 0.00 | 0.00 | 0.00 | 43 | 1013.9 |
| 20260504232003 | 20 | 161 | 0.0 | 0.0 | 0.00 | 0.00 | 0.00 | 44 | 1014.0 |
| 20260504231903 | 20 | 171 | 0.0 | 0.0 | 0.00 | 0.00 | 0.00 | 44 | 1013.9 |
| 20260504231758 | 20 | 165 | 0.0 | 0.0 | 0.00 | 0.00 | 0.00 | 43 | 1013.9 |
| 20260504231700 | 21 | 179 | 0.0 | 0.0 | 0.00 | 0.00 | 0.00 | 43 | 1013.9 |
| 20260504231558 | 21 | 178 | 0.0 | 0.0 | 0.00 | 0.00 | 0.00 | 43 | 1013.9 |
| 20260504231459 | 21 | 182 | 0.0 | 0.0 | 0.00 | 0.00 | 0.00 | 43 | 1014.0 |
| 20260504231356 | 21 | 167 | 0.0 | 0.0 | 0.00 | 0.00 | 0.00 | 44 | 1013.9 |
| 20260504231258 | 21 | 146 | 0.0 | 0.0 | 0.00 | 0.00 | 0.00 | 44 | 1013.9 |
| 20260504231155 | 21 | 142 | 0.0 | 0.0 | 0.00 | 0.00 | 0.00 | 43 | 1013.9 |
| 20260504231052 | 21 | 172 | 0.0 | 0.0 | 0.00 | 0.00 | 0.00 | 43 | 1013.9 |
| 20260504230953 | 21 | 189 | 0.0 | 0.0 | 0.00 | 0.00 | 0.00 | 43 | 1013.9 |
| 20260504230851 | 21 | 173 | 0.0 | 0.0 | 0.00 | 0.00 | 0.00 | 43 | 1013.9 |
| 20260504230740 | 21 | 174 | 0.0 | 0.0 | 0.00 | 0.00 | 0.00 | 43 | 1013.9 |
| 20260504230639 | 21 | 173 | 0.0 | 0.0 | 0.00 | 0.00 | 0.00 | 42 | 1013.8 |
| 20260504230541 | 21 | 175 | 0.0 | 0.0 | 0.00 | 0.00 | 0.00 | 43 | 1013.8 |
| 20260504230441 | 21 | 202 | 0.0 | 0.0 | 0.00 | 0.00 | 0.00 | 43 | 1013.9 |
| 20260504230340 | 21 | 163 | 0.0 | 0.0 | 0.00 | 0.00 | 0.00 | 43 | 1013.9 |
| 20260504230240 | 21 | 157 | 0.0 | 0.0 | 0.00 | 0.00 | 0.00 | 43 | 1013.9 |
| 20260504230138 | 21 | 252 | 0.0 | 0.0 | 0.00 | 0.00 | 0.00 | 42 | 1013.9 |
| 20260504230038 | 21 | 185 | 0.0 | 0.0 | 0.00 | 0.00 | 0.00 | 43 | 1013.9 |
| 20260504225936 | 21 | 117 | 0.0 | 0.0 | 0.00 | 0.00 | 0.00 | 43 | 1013.9 |
| 20260504225835 | 21 | 182 | 0.0 | 0.0 | 0.00 | 0.00 | 0.00 | 44 | 1013.8 |
| 20260504225732 | 21 | 190 | 0.0 | 0.0 | 0.00 | 0.00 | 0.00 | 44 | 1013.9 |
| 20260504225628 | 21 | 191 | 0.0 | 0.0 | 0.00 | 0.00 | 0.00 | 44 | 1013.8 |
| 20260504225529 | 21 | 190 | 0.0 | 0.0 | 0.00 | 0.00 | 0.00 | 44 | 1013.8 |
| 20260504225428 | 21 | 185 | 0.0 | 0.0 | 0.00 | 0.00 | 0.00 | 43 | 1013.8 |
| 20260504225328 | 21 | 148 | 0.0 | 0.0 | 0.00 | 0.00 | 0.00 | 44 | 1013.8 |
| 20260504225222 | 21 | 149 | 0.0 | 0.0 | 0.00 | 0.00 | 0.00 | 44 | 1013.8 |
| 20260504225123 | 21 | 168 | 0.0 | 0.0 | 0.00 | 0.00 | 0.00 | 44 | 1013.9 |
| 20260504225024 | 21 | 168 | 0.0 | 0.0 | 0.00 | 0.00 | 0.00 | 44 | 1013.9 |
| 20260504224922 | 21 | 171 | 0.0 | 0.0 | 0.00 | 0.00 | 0.00 | 44 | 1013.9 |
| 20260504224818 | 21 | 198 | 0.0 | 0.0 | 0.00 | 0.00 | 0.00 | 44 | 1013.8 |
| 20260504224719 | 21 | 151 | 0.0 | 0.0 | 0.00 | 0.00 | 0.00 | 45 | 1013.9 |
| 20260504224616 | 21 | 160 | 0.0 | 0.0 | 0.00 | 0.00 | 0.00 | 44 | 1013.9 |
| 20260504224514 | 21 | 167 | 0.0 | 0.0 | 0.00 | 0.00 | 0.00 | 45 | 1013.9 |
| 20260504224415 | 21 | 132 | 0.0 | 0.0 | 0.00 | 0.00 | 0.00 | 44 | 1013.9 |
| 20260504224312 | 21 | 180 | 0.0 | 0.0 | 0.00 | 0.00 | 0.00 | 44 | 1013.9 |
| 20260504224209 | 21 | 175 | 0.0 | 0.0 | 0.00 | 0.00 | 0.00 | 44 | 1013.9 |
| 20260504224108 | 21 | 109 | 0.0 | 0.0 | 0.00 | 0.00 | 0.00 | 44 | 1013.9 |
| 20260504224007 | 21 | 109 | 0.0 | 0.0 | 0.00 | 0.00 | 0.00 | 43 | 1013.9 |
| 20260504223907 | 21 | 135 | 0.0 | 0.0 | 0.00 | 0.00 | 0.00 | 43 | 1013.9 |
| 20260504223807 | 21 | 145 | 0.0 | 0.0 | 0.00 | 0.00 | 0.00 | 43 | 1013.9 |
| 20260504223657 | 21 | 167 | 0.0 | 0.0 | 0.00 | 0.00 | 0.00 | 43 | 1013.8 |
| 20260504223556 | 21 | 194 | 0.0 | 0.0 | 0.00 | 0.00 | 0.00 | 43 | 1013.9 |
| 20260504223457 | 21 | 196 | 0.0 | 0.0 | 0.00 | 0.00 | 0.00 | 43 | 1013.8 |
| 20260504223355 | 21 | 165 | 0.0 | 0.0 | 0.00 | 0.00 | 0.00 | 43 | 1013.9 |
| 20260504223257 | 21 | 159 | 0.0 | 0.0 | 0.00 | 0.00 | 0.00 | 44 | 1013.8 |
| 20260504223151 | 21 | 168 | 0.0 | 0.0 | 0.00 | 0.00 | 0.00 | 44 | 1013.9 |
| 20260504223052 | 21 | 167 | 0.0 | 0.0 | 0.00 | 0.00 | 0.00 | 43 | 1013.8 |
| 20260504222952 | 21 | 115 | 0.0 | 0.0 | 0.00 | 0.00 | 0.00 | 42 | 1013.8 |
| 20260504222853 | 21 | 132 | 0.0 | 0.0 | 0.00 | 0.00 | 0.00 | 43 | 1013.7 |
| 20260504222751 | 21 | 138 | 0.0 | 0.0 | 0.00 | 0.00 | 0.00 | 44 | 1013.8 |
| 20260504222645 | 21 | 144 | 0.0 | 0.0 | 0.00 | 0.00 | 0.00 | 43 | 1013.9 |
| 20260504222544 | 22 | 142 | 0.0 | 0.0 | 0.00 | 0.00 | 0.00 | 43 | 1013.7 |
| 20260504222445 | 22 | 146 | 0.0 | 0.0 | 0.00 | 0.00 | 0.00 | 43 | 1013.8 |
| 20260504222348 | 22 | 132 | 0.0 | 0.0 | 0.00 | 0.00 | 0.00 | 43 | 1013.8 |
| 20260504222245 | 22 | 198 | 0.0 | 0.0 | 0.00 | 0.00 | 0.00 | 43 | 1013.8 |
| 20260504222138 | 22 | 184 | 0.0 | 0.0 | 0.00 | 0.00 | 0.00 | 43 | 1013.8 |
| 20260504222038 | 22 | 164 | 0.0 | 0.0 | 0.00 | 0.00 | 0.00 | 43 | 1013.8 |
| 20260504221938 | 22 | 165 | 0.0 | 0.0 | 0.00 | 0.00 | 0.00 | 44 | 1013.8 |
| 20260504221837 | 22 | 165 | 0.0 | 0.0 | 0.00 | 0.00 | 0.00 | 45 | 1013.8 |
| 20260504221630 | 22 | 173 | 0.0 | 0.0 | 0.00 | 0.00 | 0.00 | 42 | 1013.7 |
| 20260504221528 | 22 | 221 | 0.0 | 0.0 | 0.00 | 0.00 | 0.00 | 44 | 1013.8 |
| 20260504221428 | 22 | 165 | 0.0 | 0.0 | 0.00 | 0.00 | 0.00 | 42 | 1013.8 |
| 20260504221329 | 22 | 150 | 0.0 | 0.0 | 0.00 | 0.00 | 0.00 | 42 | 1013.8 |
| 20260504221229 | 22 | 174 | 0.0 | 0.0 | 0.00 | 0.00 | 0.00 | 43 | 1013.8 |
| 20260504221128 | 22 | 161 | 0.0 | 0.0 | 0.00 | 0.00 | 0.00 | 43 | 1013.9 |
| 20260504221028 | 22 | 138 | 0.0 | 0.0 | 0.00 | 0.00 | 0.00 | 42 | 1013.8 |
| 20260504220925 | 22 | 197 | 0.0 | 0.0 | 0.00 | 0.00 | 0.00 | 43 | 1013.8 |
| 20260504220824 | 22 | 121 | 0.0 | 0.0 | 0.00 | 0.00 | 0.00 | 44 | 1013.9 |
| 20260504220722 | 22 | 211 | 0.0 | 0.0 | 0.00 | 0.00 | 0.00 | 44 | 1013.8 |
| 20260504220616 | 22 | 167 | 0.0 | 0.0 | 0.00 | 0.00 | 0.00 | 43 | 1013.8 |
| 20260504220516 | 22 | 119 | 0.0 | 0.0 | 0.00 | 0.00 | 0.00 | 43 | 1013.8 |
| 20260504220415 | 22 | 146 | 0.0 | 0.0 | 0.00 | 0.00 | 0.00 | 42 | 1013.7 |
| 20260504220314 | 22 | 183 | 0.0 | 0.0 | 0.00 | 0.00 | 0.00 | 43 | 1013.9 |
| 20260504220213 | 22 | 133 | 0.0 | 0.0 | 0.00 | 0.00 | 0.00 | 42 | 1013.8 |
| 20260504220106 | 22 | 174 | 0.0 | 0.0 | 0.00 | 0.00 | 0.00 | 43 | 1013.8 |
| 20260504220006 | 22 | 140 | 0.0 | 0.0 | 0.00 | 0.00 | 0.00 | 44 | 1013.8 |
| 20260504215906 | 22 | 139 | 0.0 | 0.0 | 0.00 | 0.00 | 0.00 | 42 | 1013.9 |
| 20260504215807 | 22 | 140 | 0.0 | 0.0 | 0.00 | 0.00 | 0.00 | 43 | 1013.9 |
| 20260504215707 | 22 | 219 | 0.0 | 0.0 | 0.00 | 0.00 | 0.00 | 45 | 1013.8 |
| 20260504215602 | 22 | 166 | 0.0 | 0.0 | 0.00 | 0.00 | 0.00 | 45 | 1013.8 |
| 20260504215500 | 22 | 166 | 0.0 | 0.0 | 0.00 | 0.00 | 0.00 | 44 | 1013.9 |
| 20260504215401 | 22 | 158 | 0.0 | 0.0 | 0.00 | 0.00 | 0.00 | 44 | 1013.9 |
| 20260504215300 | 22 | 158 | 0.0 | 0.0 | 0.00 | 0.00 | 0.00 | 44 | 1013.9 |
| 20260504215201 | 22 | 169 | 0.0 | 0.0 | 0.00 | 0.00 | 0.00 | 43 | 1013.8 |
| 20260504215054 | 22 | 121 | 0.0 | 0.0 | 0.00 | 0.00 | 0.00 | 43 | 1014.0 |
| 20260504214954 | 22 | 145 | 0.0 | 0.0 | 0.00 | 0.00 | 0.00 | 45 | 1013.9 |
| 20260504214853 | 22 | 135 | 0.0 | 0.0 | 0.00 | 0.00 | 0.00 | 44 | 1013.9 |
| 20260504214751 | 22 | 153 | 0.0 | 0.0 | 0.00 | 0.00 | 0.00 | 45 | 1013.9 |
| 20260504214651 | 22 | 156 | 0.0 | 0.0 | 0.00 | 0.00 | 0.00 | 43 | 1013.8 |
| 20260504214547 | 22 | 135 | 0.0 | 0.0 | 0.00 | 0.00 | 0.00 | 45 | 1013.9 |
| 20260504214446 | 22 | 134 | 0.0 | 0.0 | 0.00 | 0.00 | 0.00 | 45 | 1013.9 |
| 20260504214347 | 22 | 147 | 0.0 | 0.0 | 0.00 | 0.00 | 0.00 | 44 | 1014.0 |
| 20260504214246 | 22 | 198 | 0.0 | 0.0 | 0.00 | 0.00 | 0.00 | 44 | 1013.9 |
| 20260504214145 | 22 | 148 | 0.0 | 0.0 | 0.00 | 0.00 | 0.00 | 43 | 1013.9 |
| 20260504214045 | 22 | 167 | 0.0 | 0.0 | 0.00 | 0.00 | 0.00 | 44 | 1013.9 |
| 20260504213942 | 22 | 103 | 0.0 | 0.0 | 0.00 | 0.00 | 0.00 | 44 | 1013.8 |
| 20260504213840 | 22 | 155 | 0.0 | 0.0 | 0.00 | 0.00 | 0.00 | 45 | 1013.9 |
| 20260504213740 | 22 | 149 | 0.0 | 0.0 | 0.00 | 0.00 | 0.00 | 43 | 1013.9 |
| 20260504213638 | 22 | 179 | 0.0 | 0.0 | 0.00 | 0.00 | 0.00 | 45 | 1013.9 |
| 20260504213528 | 22 | 163 | 0.0 | 0.0 | 0.00 | 0.00 | 0.00 | 44 | 1013.9 |
| 20260504213428 | 22 | 128 | 0.0 | 0.0 | 0.00 | 0.00 | 0.00 | 44 | 1013.8 |
| 20260504213329 | 22 | 160 | 0.0 | 0.0 | 0.00 | 0.00 | 0.00 | 44 | 1013.8 |
| 20260504213229 | 22 | 152 | 0.0 | 0.0 | 0.00 | 0.00 | 0.00 | 44 | 1014.0 |
| 20260504213129 | 22 | 149 | 0.0 | 0.0 | 0.00 | 0.00 | 0.00 | 44 | 1013.8 |
| 20260504213025 | 22 | 185 | 0.0 | 0.0 | 0.00 | 0.00 | 0.00 | 44 | 1013.8 |
| 20260504212924 | 22 | 217 | 0.0 | 0.0 | 0.00 | 0.00 | 0.00 | 44 | 1013.9 |
| 20260504212825 | 22 | 118 | 0.0 | 0.0 | 0.00 | 0.00 | 0.00 | 44 | 1014.0 |
| 20260504212725 | 22 | 190 | 0.0 | 0.0 | 0.00 | 0.00 | 0.00 | 43 | 1013.9 |
| 20260504212623 | 22 | 169 | 0.0 | 0.0 | 0.00 | 0.00 | 0.00 | 45 | 1013.9 |
| 20260504212518 | 22 | 152 | 0.0 | 0.0 | 0.00 | 0.00 | 0.00 | 44 | 1013.9 |
| 20260504212416 | 22 | 164 | 0.0 | 0.0 | 0.00 | 0.00 | 0.00 | 44 | 1013.9 |
| 20260504212317 | 22 | 158 | 0.0 | 0.0 | 0.00 | 0.00 | 0.00 | 44 | 1013.9 |
| 20260504212216 | 22 | 118 | 0.0 | 0.0 | 0.00 | 0.00 | 0.00 | 44 | 1014.0 |
| 20260504212116 | 22 | 144 | 0.0 | 0.0 | 0.00 | 0.00 | 0.00 | 44 | 1014.0 |
| 20260504212006 | 22 | 161 | 0.0 | 0.0 | 0.00 | 0.00 | 0.00 | 43 | 1014.0 |
| 20260504211906 | 22 | 146 | 0.0 | 0.0 | 0.00 | 0.00 | 0.00 | 43 | 1013.9 |
| 20260504211807 | 22 | 157 | 0.0 | 0.0 | 0.00 | 0.00 | 0.00 | 45 | 1014.0 |
| 20260504211705 | 22 | 166 | 0.0 | 0.0 | 0.00 | 0.00 | 0.00 | 45 | 1013.9 |
| 20260504211606 | 22 | 224 | 0.0 | 0.0 | 0.00 | 0.00 | 0.00 | 44 | 1014.0 |
| 20260504211500 | 22 | 138 | 0.0 | 0.0 | 0.00 | 0.00 | 0.00 | 44 | 1013.9 |
| 20260504211402 | 22 | 222 | 0.0 | 0.0 | 0.00 | 0.00 | 0.00 | 45 | 1014.0 |
| 20260504211300 | 22 | 163 | 0.0 | 0.0 | 0.00 | 0.00 | 0.00 | 45 | 1014.0 |
| 20260504211201 | 22 | 183 | 0.0 | 0.0 | 0.00 | 0.00 | 0.00 | 45 | 1014.0 |
| 20260504211100 | 22 | 149 | 0.0 | 0.0 | 0.00 | 0.00 | 0.00 | 44 | 1014.0 |
| 20260504210958 | 22 | 144 | 0.0 | 0.0 | 0.00 | 0.00 | 0.00 | 45 | 1014.0 |
| 20260504210859 | 22 | 170 | 0.0 | 0.0 | 0.00 | 0.00 | 0.00 | 44 | 1014.0 |
| 20260504210756 | 22 | 158 | 0.0 | 0.0 | 0.00 | 0.00 | 0.00 | 45 | 1013.9 |
| 20260504210656 | 22 | 179 | 0.0 | 0.0 | 0.00 | 0.00 | 0.00 | 45 | 1013.9 |
| 20260504210555 | 22 | 172 | 0.0 | 0.0 | 0.00 | 0.00 | 0.00 | 45 | 1014.0 |
| 20260504210447 | 22 | 173 | 0.0 | 0.0 | 0.00 | 0.00 | 0.00 | 45 | 1013.9 |
| 20260504210344 | 22 | 113 | 0.0 | 0.0 | 0.00 | 0.00 | 0.00 | 44 | 1013.9 |
| 20260504210245 | 22 | 107 | 0.0 | 0.0 | 0.00 | 0.00 | 0.00 | 45 | 1013.9 |
| 20260504210143 | 22 | 135 | 0.0 | 0.0 | 0.00 | 0.00 | 0.00 | 45 | 1014.0 |
| 20260504210044 | 22 | 171 | 0.0 | 0.0 | 0.00 | 0.00 | 0.00 | 44 | 1014.0 |
| 20260504205938 | 22 | 226 | 0.0 | 0.0 | 0.00 | 0.00 | 0.00 | 45 | 1014.1 |
| 20260504205838 | 22 | 151 | 0.0 | 0.0 | 0.00 | 0.00 | 0.00 | 45 | 1013.9 |
| 20260504205739 | 22 | 144 | 0.0 | 0.0 | 0.00 | 0.00 | 0.00 | 45 | 1013.9 |
| 20260504205638 | 22 | 128 | 0.0 | 0.0 | 0.00 | 0.00 | 0.00 | 44 | 1013.9 |
| 20260504205538 | 22 | 117 | 0.0 | 0.0 | 0.00 | 0.00 | 0.00 | 43 | 1013.9 |
| 20260504205435 | 22 | 145 | 0.0 | 0.0 | 0.00 | 0.00 | 0.00 | 43 | 1014.0 |
| 20260504205333 | 22 | 136 | 0.0 | 0.0 | 0.00 | 0.00 | 0.00 | 43 | 1014.0 |
| 20260504205233 | 22 | 121 | 0.0 | 0.0 | 0.00 | 0.00 | 0.00 | 44 | 1014.1 |
| 20260504205132 | 22 | 75 | 0.0 | 0.0 | 0.00 | 0.00 | 0.00 | 43 | 1014.0 |
| 20260504205032 | 22 | 155 | 0.0 | 0.0 | 0.00 | 0.00 | 0.00 | 42 | 1014.0 |
| 20260504204923 | 22 | 137 | 0.0 | 0.0 | 0.00 | 0.00 | 0.00 | 41 | 1014.0 |
| 20260504204823 | 23 | 127 | 0.0 | 0.0 | 0.00 | 0.00 | 0.00 | 43 | 1014.1 |
| 20260504204723 | 23 | 163 | 0.0 | 0.0 | 0.00 | 0.00 | 0.00 | 42 | 1014.1 |
| 20260504204623 | 23 | 154 | 0.0 | 0.0 | 0.00 | 0.00 | 0.00 | 42 | 1014.0 |
| 20260504204522 | 23 | 219 | 0.0 | 0.0 | 0.00 | 0.00 | 0.00 | 43 | 1014.1 |
| 20260504204416 | 23 | 156 | 0.0 | 0.0 | 0.00 | 0.00 | 0.00 | 42 | 1014.0 |
| 20260504204315 | 23 | 130 | 0.0 | 0.0 | 0.00 | 0.00 | 0.00 | 42 | 1014.0 |
| 20260504204215 | 23 | 109 | 0.0 | 0.0 | 0.00 | 0.00 | 0.00 | 42 | 1013.9 |
| 20260504204117 | 23 | 132 | 0.0 | 0.0 | 0.00 | 0.00 | 0.00 | 42 | 1014.1 |
| 20260504204016 | 23 | 128 | 0.0 | 0.0 | 0.00 | 0.00 | 0.00 | 43 | 1014.1 |
| 20260504203916 | 23 | 187 | 0.0 | 0.0 | 0.00 | 0.00 | 0.00 | 41 | 1014.1 |
| 20260504203815 | 23 | 169 | 0.0 | 0.0 | 0.00 | 0.00 | 0.00 | 42 | 1014.2 |
| 20260504203712 | 23 | 173 | 0.0 | 0.0 | 0.00 | 0.00 | 0.00 | 42 | 1014.1 |
| 20260504203612 | 23 | 128 | 0.0 | 0.0 | 0.00 | 0.00 | 0.00 | 44 | 1014.0 |
| 20260504203511 | 23 | 166 | 0.0 | 0.0 | 0.00 | 0.00 | 0.00 | 42 | 1014.1 |
| 20260504203400 | 23 | 148 | 0.0 | 0.0 | 0.00 | 0.00 | 0.00 | 43 | 1014.1 |
| 20260504203301 | 23 | 166 | 0.0 | 0.0 | 0.00 | 0.00 | 0.00 | 43 | 1014.1 |
| 20260504203200 | 23 | 176 | 0.0 | 0.0 | 0.00 | 0.00 | 0.00 | 43 | 1014.0 |
| 20260504203101 | 23 | 188 | 0.0 | 0.0 | 0.00 | 0.00 | 0.00 | 42 | 1014.1 |
| 20260504203000 | 23 | 151 | 0.0 | 0.0 | 0.00 | 0.00 | 0.00 | 42 | 1014.1 |
| 20260504202854 | 23 | 148 | 0.0 | 0.0 | 0.00 | 0.00 | 0.00 | 41 | 1014.0 |
| 20260504202754 | 23 | 240 | 0.0 | 0.0 | 0.00 | 0.00 | 0.00 | 40 | 1014.1 |
| 20260504202655 | 23 | 187 | 0.0 | 0.0 | 0.00 | 0.00 | 0.00 | 41 | 1014.2 |
| 20260504202555 | 23 | 194 | 0.0 | 0.0 | 0.00 | 0.00 | 0.00 | 41 | 1014.2 |
| 20260504202455 | 23 | 178 | 0.0 | 0.0 | 0.00 | 0.00 | 0.00 | 42 | 1014.1 |
| 20260504202351 | 23 | 129 | 0.0 | 0.0 | 0.00 | 0.00 | 0.00 | 42 | 1014.2 |
| 20260504202248 | 23 | 80 | 0.0 | 0.0 | 0.00 | 0.00 | 0.00 | 40 | 1014.3 |
| 20260504202149 | 23 | 223 | 0.0 | 0.0 | 0.00 | 0.00 | 0.00 | 43 | 1014.3 |
| 20260504202048 | 23 | 116 | 0.0 | 0.0 | 0.00 | 0.00 | 0.00 | 43 | 1014.3 |
| 20260504201949 | 23 | 134 | 0.0 | 0.0 | 0.00 | 0.00 | 0.00 | 43 | 1014.3 |
| 20260504201843 | 23 | 140 | 0.0 | 0.0 | 0.00 | 0.00 | 0.00 | 42 | 1014.3 |
| 20260504201743 | 23 | 160 | 0.0 | 0.0 | 0.00 | 0.00 | 0.00 | 42 | 1014.3 |
| 20260504201640 | 23 | 180 | 0.0 | 0.0 | 0.00 | 0.00 | 0.00 | 41 | 1014.3 |
| 20260504201541 | 23 | 167 | 0.0 | 0.0 | 0.00 | 0.00 | 0.00 | 41 | 1014.4 |
| 20260504201438 | 23 | 168 | 0.0 | 0.0 | 0.00 | 0.00 | 0.00 | 42 | 1014.4 |
| 20260504201335 | 23 | 177 | 0.0 | 0.0 | 0.00 | 0.00 | 0.00 | 45 | 1014.4 |
| 20260504201232 | 23 | 177 | 0.0 | 0.0 | 0.00 | 0.00 | 0.00 | 44 | 1014.3 |
| 20260504201132 | 23 | 178 | 0.0 | 0.0 | 0.00 | 0.00 | 0.00 | 42 | 1014.3 |
| 20260504201033 | 23 | 205 | 0.0 | 0.0 | 0.00 | 0.00 | 0.00 | 41 | 1014.3 |
| 20260504200933 | 23 | 322 | 0.0 | 0.0 | 0.00 | 0.00 | 0.00 | 42 | 1014.3 |
| 20260504200826 | 23 | 163 | 0.0 | 0.0 | 0.00 | 0.00 | 0.00 | 44 | 1014.3 |
| 20260504200726 | 23 | 134 | 0.0 | 0.0 | 0.00 | 0.00 | 0.00 | 42 | 1014.3 |
| 20260504200627 | 23 | 146 | 0.0 | 0.0 | 0.00 | 0.00 | 0.00 | 41 | 1014.4 |
| 20260504200527 | 23 | 135 | 0.0 | 0.0 | 0.00 | 0.00 | 0.00 | 41 | 1014.4 |
| 20260504200427 | 23 | 132 | 0.0 | 0.0 | 0.00 | 0.00 | 0.00 | 42 | 1014.4 |
| 20260504200316 | 23 | 153 | 0.0 | 0.0 | 0.00 | 0.00 | 0.00 | 42 | 1014.3 |
| 20260504200216 | 23 | 193 | 0.0 | 0.0 | 0.00 | 0.00 | 0.00 | 43 | 1014.4 |
| 20260504200016 | 23 | 125 | 0.0 | 0.0 | 0.00 | 0.00 | 0.00 | 42 | 1014.4 |
| 20260504195917 | 23 | 173 | 0.0 | 0.0 | 0.00 | 0.00 | 0.00 | 42 | 1014.5 |
| 20260504195812 | 23 | 145 | 0.0 | 0.0 | 0.00 | 0.00 | 0.00 | 41 | 1014.5 |
| 20260504195712 | 23 | 120 | 0.0 | 0.0 | 0.00 | 0.00 | 0.00 | 42 | 1014.5 |
| 20260504195612 | 23 | 144 | 0.0 | 0.0 | 0.00 | 0.00 | 0.00 | 44 | 1014.5 |
| 20260504195513 | 23 | 121 | 0.0 | 0.0 | 0.00 | 0.00 | 0.00 | 42 | 1014.5 |
| 20260504195410 | 23 | 306 | 0.0 | 0.0 | 0.00 | 0.00 | 0.00 | 41 | 1014.6 |
| 20260504195305 | 23 | 156 | 0.0 | 0.0 | 0.00 | 0.00 | 0.00 | 45 | 1014.6 |
| 20260504195205 | 23 | 155 | 0.0 | 0.0 | 0.00 | 0.00 | 0.00 | 44 | 1014.7 |
| 20260504195104 | 23 | 138 | 0.0 | 0.0 | 0.00 | 0.00 | 0.00 | 43 | 1014.7 |
| 20260504195005 | 23 | 123 | 0.0 | 0.0 | 0.00 | 0.00 | 0.00 | 44 | 1014.7 |
| 20260504194903 | 23 | 144 | 0.0 | 0.0 | 0.00 | 0.00 | 0.00 | 41 | 1014.7 |
| 20260504194756 | 23 | 148 | 0.0 | 0.0 | 0.00 | 0.00 | 0.00 | 42 | 1014.6 |
| 20260504194653 | 23 | 112 | 0.0 | 0.0 | 0.00 | 0.00 | 0.00 | 40 | 1014.6 |
| 20260504194553 | 23 | 115 | 0.0 | 0.0 | 0.00 | 0.00 | 0.00 | 41 | 1014.6 |
| 20260504194453 | 23 | 143 | 0.0 | 6.4 | 0.00 | 0.00 | 0.00 | 40 | 1014.7 |
| 20260504194353 | 23 | 162 | 1.6 | 8.0 | 0.00 | 0.00 | 0.00 | 40 | 1014.7 |
| 20260504194248 | 23 | 153 | 1.6 | 11.3 | 0.00 | 0.00 | 0.00 | 40 | 1014.8 |
| 20260504194146 | 23 | 141 | 1.6 | 11.3 | 0.00 | 0.00 | 0.00 | 41 | 1014.8 |
| 20260504194046 | 23 | 192 | 3.2 | 11.3 | 0.00 | 0.00 | 0.00 | 43 | 1014.7 |
| 20260504193947 | 23 | 157 | 3.2 | 14.5 | 0.00 | 0.00 | 0.00 | 41 | 1014.8 |
| 20260504193847 | 23 | 275 | 3.2 | 14.5 | 0.00 | 0.00 | 0.00 | 41 | 1014.8 |
| 20260504193746 | 23 | 283 | 4.8 | 14.5 | 0.00 | 0.00 | 0.00 | 42 | 1014.8 |
| 20260504193644 | 23 | 351 | 4.8 | 14.5 | 0.00 | 0.00 | 0.00 | 43 | 1015.0 |
| 20260504193544 | 23 | 133 | 4.8 | 14.5 | 0.00 | 0.00 | 0.00 | 41 | 1014.9 |
| 20260504193443 | 23 | 136 | 4.8 | 14.5 | 0.00 | 0.00 | 0.00 | 42 | 1014.9 |
| 20260504193340 | 23 | 134 | 4.8 | 14.5 | 0.00 | 0.00 | 0.00 | 41 | 1014.9 |
| 20260504193227 | 23 | 323 | 4.8 | 14.5 | 0.00 | 0.00 | 0.00 | 39 | 1014.9 |
| 20260504193126 | 23 | 317 | 4.8 | 14.5 | 0.00 | 0.00 | 0.00 | 40 | 1014.9 |
| 20260504193026 | 23 | 207 | 3.2 | 11.3 | 0.00 | 0.00 | 0.00 | 41 | 1015.0 |
| 20260504192927 | 23 | 184 | 3.2 | 11.3 | 0.00 | 0.00 | 0.00 | 40 | 1014.8 |
| 20260504192826 | 23 | 231 | 3.2 | 11.3 | 0.00 | 0.00 | 0.00 | 42 | 1015.0 |
| 20260504192722 | 23 | 112 | 3.2 | 11.3 | 0.00 | 0.00 | 0.00 | 44 | 1015.0 |
| 20260504192622 | 23 | 177 | 3.2 | 11.3 | 0.00 | 0.00 | 0.00 | 43 | 1015.0 |
| 20260504192524 | 23 | 101 | 3.2 | 11.3 | 0.00 | 0.00 | 0.00 | 42 | 1015.0 |
| 20260504192422 | 23 | 123 | 3.2 | 11.3 | 0.00 | 0.00 | 0.00 | 42 | 1015.0 |
| 20260504192321 | 23 | 163 | 3.2 | 11.3 | 0.00 | 0.00 | 0.00 | 43 | 1015.0 |
| 20260504192214 | 23 | 155 | 3.2 | 12.9 | 0.00 | 0.00 | 0.00 | 42 | 1015.1 |
| 20260504192114 | 23 | 155 | 4.8 | 12.9 | 0.00 | 0.00 | 0.00 | 41 | 1015.1 |
| 20260504192015 | 23 | 119 | 4.8 | 12.9 | 0.00 | 0.00 | 0.00 | 45 | 1015.0 |
| 20260504191913 | 23 | 187 | 4.8 | 12.9 | 0.00 | 0.00 | 0.00 | 45 | 1015.1 |
| 20260504191815 | 23 | 275 | 3.2 | 12.9 | 0.00 | 0.00 | 0.00 | 42 | 1015.1 |
| 20260504191704 | 23 | 298 | 3.2 | 12.9 | 0.00 | 0.00 | 0.00 | 42 | 1015.1 |
| 20260504191604 | 23 | 299 | 3.2 | 12.9 | 0.00 | 0.00 | 0.00 | 41 | 1015.1 |
| 20260504191504 | 23 | 321 | 3.2 | 12.9 | 0.00 | 0.00 | 0.00 | 41 | 1015.3 |
| 20260504191403 | 23 | 309 | 1.6 | 12.9 | 0.00 | 0.00 | 0.00 | 44 | 1015.3 |
| 20260504191305 | 23 | 146 | 1.6 | 9.7 | 0.00 | 0.00 | 0.00 | 42 | 1015.1 |
| 20260504191158 | 23 | 286 | 1.6 | 9.7 | 0.00 | 0.00 | 0.00 | 40 | 1015.1 |
| 20260504191059 | 23 | 221 | 0.0 | 9.7 | 0.00 | 0.00 | 0.00 | 41 | 1015.3 |
| 20260504190959 | 23 | 355 | 0.0 | 6.4 | 0.00 | 0.00 | 0.00 | 42 | 1015.3 |
| 20260504190859 | 23 | 157 | 0.0 | 1.6 | 0.00 | 0.00 | 0.00 | 41 | 1015.3 |
| 20260504190759 | 23 | 172 | 0.0 | 0.0 | 0.00 | 0.00 | 0.00 | 42 | 1015.3 |
| 20260504190655 | 23 | 146 | 0.0 | 0.0 | 0.00 | 0.00 | 0.00 | 45 | 1015.4 |
| 20260504190555 | 23 | 125 | 0.0 | 0.0 | 0.00 | 0.00 | 0.00 | 44 | 1015.3 |
| 20260504190455 | 23 | 164 | 0.0 | 0.0 | 0.00 | 0.00 | 0.00 | 44 | 1015.3 |
| 20260504190353 | 23 | 148 | 0.0 | 0.0 | 0.00 | 0.00 | 0.00 | 44 | 1015.3 |
| 20260504190253 | 23 | 144 | 0.0 | 0.0 | 0.00 | 0.00 | 0.00 | 43 | 1015.3 |
| 20260504190148 | 23 | 336 | 0.0 | 0.0 | 0.00 | 0.00 | 0.00 | 44 | 1015.3 |
| 20260504190049 | 23 | 105 | 0.0 | 8.0 | 0.00 | 0.00 | 0.00 | 47 | 1015.3 |
| 20260504185947 | 23 | 106 | 1.6 | 12.9 | 0.00 | 0.00 | 0.00 | 46 | 1015.4 |
| 20260504185848 | 23 | 107 | 1.6 | 12.9 | 0.00 | 0.00 | 0.00 | 43 | 1015.4 |
| 20260504185749 | 23 | 96 | 3.2 | 12.9 | 0.00 | 0.00 | 0.00 | 44 | 1015.3 |
| 20260504185649 | 23 | 123 | 3.2 | 16.1 | 0.00 | 0.00 | 0.00 | 45 | 1015.4 |
| 20260504185548 | 23 | 63 | 3.2 | 16.1 | 0.00 | 0.00 | 0.00 | 45 | 1015.3 |
| 20260504185448 | 23 | 34 | 3.2 | 16.1 | 0.00 | 0.00 | 0.00 | 44 | 1015.4 |
| 20260504185345 | 23 | 110 | 4.8 | 16.1 | 0.00 | 0.00 | 0.00 | 42 | 1015.5 |
| 20260504185246 | 23 | 214 | 4.8 | 16.1 | 0.00 | 0.00 | 0.00 | 42 | 1015.5 |
| 20260504185144 | 23 | 212 | 4.8 | 16.1 | 0.00 | 0.00 | 0.00 | 42 | 1015.4 |
| 20260504185045 | 23 | 157 | 4.8 | 16.1 | 0.00 | 0.00 | 0.00 | 43 | 1015.5 |
| 20260504184945 | 23 | 142 | 4.8 | 16.1 | 0.00 | 0.00 | 0.00 | 45 | 1015.4 |
| 20260504184846 | 23 | 164 | 4.8 | 16.1 | 0.00 | 0.00 | 0.00 | 44 | 1015.5 |
| 20260504184743 | 23 | 147 | 4.8 | 16.1 | 0.00 | 0.00 | 0.00 | 44 | 1015.4 |
| 20260504184644 | 23 | 158 | 4.8 | 11.3 | 0.00 | 0.00 | 0.00 | 45 | 1015.5 |
| 20260504184545 | 23 | 312 | 4.8 | 11.3 | 0.00 | 0.00 | 0.00 | 44 | 1015.5 |
| 20260504184449 | 23 | 351 | 4.8 | 11.3 | 0.00 | 0.00 | 0.00 | 44 | 1015.5 |
| 20260504184341 | 23 | 0 | 4.8 | 11.3 | 0.00 | 0.00 | 0.00 | 43 | 1015.4 |
| 20260504184239 | 23 | 290 | 4.8 | 11.3 | 0.00 | 0.00 | 0.00 | 45 | 1015.5 |
| 20260504184141 | 23 | 55 | 3.2 | 11.3 | 0.00 | 0.00 | 0.00 | 47 | 1015.4 |
| 20260504184039 | 23 | 158 | 3.2 | 11.3 | 0.00 | 0.00 | 0.00 | 45 | 1015.5 |
| 20260504183934 | 23 | 74 | 3.2 | 11.3 | 0.00 | 0.00 | 0.00 | 44 | 1015.4 |
| 20260504183834 | 23 | 173 | 1.6 | 11.3 | 0.00 | 0.00 | 0.00 | 44 | 1015.5 |
| 20260504183734 | 23 | 176 | 1.6 | 11.3 | 0.00 | 0.00 | 0.00 | 46 | 1015.5 |
| 20260504183634 | 23 | 178 | 1.6 | 11.3 | 0.00 | 0.00 | 0.00 | 44 | 1015.4 |
| 20260504183533 | 23 | 104 | 0.0 | 11.3 | 0.00 | 0.00 | 0.00 | 46 | 1015.4 |
| 20260504183431 | 23 | 161 | 0.0 | 6.4 | 0.00 | 0.00 | 0.00 | 46 | 1015.4 |
| 20260504183332 | 22 | 160 | 0.0 | 1.6 | 0.00 | 0.00 | 0.00 | 45 | 1015.5 |
| 20260504183231 | 22 | 160 | 0.0 | 0.0 | 0.00 | 0.00 | 0.00 | 46 | 1015.5 |
| 20260504183131 | 22 | 165 | 0.0 | 0.0 | 0.00 | 0.00 | 0.00 | 46 | 1015.5 |
| 20260504183030 | 22 | 140 | 0.0 | 0.0 | 0.00 | 0.00 | 0.00 | 45 | 1015.6 |
| 20260504182931 | 22 | 303 | 0.0 | 0.0 | 0.00 | 0.00 | 0.00 | 43 | 1015.6 |
| 20260504182827 | 22 | 303 | 0.0 | 0.0 | 0.00 | 0.00 | 0.00 | 43 | 1015.6 |
| 20260504182729 | 22 | 302 | 0.0 | 0.0 | 0.00 | 0.00 | 0.00 | 43 | 1015.5 |
| 20260504182626 | 22 | 275 | 0.0 | 0.0 | 0.00 | 0.00 | 0.00 | 43 | 1015.7 |
| 20260504182526 | 22 | 256 | 0.0 | 0.0 | 0.00 | 0.00 | 0.00 | 44 | 1015.6 |
| 20260504182425 | 22 | 286 | 0.0 | 0.0 | 0.00 | 0.00 | 0.00 | 44 | 1015.7 |
| 20260504182325 | 22 | 319 | 0.0 | 0.0 | 0.00 | 0.00 | 0.00 | 45 | 1015.6 |
| 20260504182225 | 22 | 225 | 0.0 | 0.0 | 0.00 | 0.00 | 0.00 | 45 | 1015.6 |
| 20260504182124 | 22 | 82 | 0.0 | 0.0 | 0.00 | 0.00 | 0.00 | 45 | 1015.7 |
| 20260504182025 | 22 | 62 | 0.0 | 0.0 | 0.00 | 0.00 | 0.00 | 46 | 1015.7 |
| 20260504181821 | 22 | 148 | 0.0 | 0.0 | 0.00 | 0.00 | 0.00 | 45 | 1015.7 |
| 20260504181719 | 22 | 117 | 0.0 | 0.0 | 0.00 | 0.00 | 0.00 | 46 | 1015.7 |
| 20260504181619 | 22 | 84 | 0.0 | 0.0 | 0.00 | 0.00 | 0.00 | 44 | 1015.7 |
| 20260504181518 | 22 | 244 | 0.0 | 0.0 | 0.00 | 0.00 | 0.00 | 44 | 1015.7 |
| 20260504181418 | 22 | 91 | 0.0 | 0.0 | 0.00 | 0.00 | 0.00 | 45 | 1015.8 |
| 20260504181319 | 22 | 185 | 0.0 | 0.0 | 0.00 | 0.00 | 0.00 | 45 | 1015.8 |
| 20260504181215 | 22 | 298 | 0.0 | 0.0 | 0.00 | 0.00 | 0.00 | 45 | 1015.7 |
| 20260504181114 | 22 | 271 | 0.0 | 0.0 | 0.00 | 0.00 | 0.00 | 44 | 1015.7 |
| 20260504181015 | 22 | 244 | 0.0 | 0.0 | 0.00 | 0.00 | 0.00 | 46 | 1015.7 |
| 20260504180913 | 22 | 312 | 0.0 | 0.0 | 0.00 | 0.00 | 0.00 | 47 | 1015.7 |
| 20260504180813 | 22 | 26 | 0.0 | 0.0 | 0.00 | 0.00 | 0.00 | 46 | 1015.7 |
| 20260504180709 | 22 | 143 | 0.0 | 0.0 | 0.00 | 0.00 | 0.00 | 46 | 1015.7 |
| 20260504180607 | 22 | 224 | 0.0 | 0.0 | 0.00 | 0.00 | 0.00 | 44 | 1015.7 |
| 20260504180507 | 22 | 243 | 0.0 | 0.0 | 0.00 | 0.00 | 0.00 | 45 | 1015.8 |
| 20260504180409 | 22 | 48 | 0.0 | 0.0 | 0.00 | 0.00 | 0.00 | 45 | 1015.7 |
| 20260504180307 | 22 | 273 | 0.0 | 0.0 | 0.00 | 0.00 | 0.00 | 46 | 1015.7 |
| 20260504180205 | 22 | 355 | 0.0 | 0.0 | 0.00 | 0.00 | 0.00 | 47 | 1015.7 |
| 20260504180105 | 22 | 355 | 0.0 | 0.0 | 0.00 | 0.00 | 0.00 | 45 | 1015.7 |
| 20260504180005 | 22 | 117 | 0.0 | 0.0 | 0.00 | 0.00 | 0.00 | 45 | 1015.8 |
| 20260504175905 | 22 | 342 | 0.0 | 0.0 | 0.00 | 0.00 | 0.00 | 44 | 1015.8 |
| 20260504175802 | 22 | 341 | 0.0 | 0.0 | 0.00 | 0.00 | 0.00 | 45 | 1015.8 |
| 20260504175704 | 22 | 341 | 0.0 | 0.0 | 0.00 | 0.00 | 0.00 | 46 | 1015.8 |
| 20260504175601 | 21 | 341 | 0.0 | 0.0 | 0.00 | 0.00 | 0.00 | 46 | 1015.8 |
| 20260504175500 | 21 | 341 | 0.0 | 0.0 | 0.00 | 0.00 | 0.00 | 44 | 1015.7 |
| 20260504175401 | 21 | 327 | 0.0 | 0.0 | 0.00 | 0.00 | 0.00 | 44 | 1015.8 |
| 20260504175301 | 22 | 313 | 0.0 | 0.0 | 0.00 | 0.00 | 0.00 | 45 | 1015.7 |
| 20260504175202 | 22 | 296 | 0.0 | 0.0 | 0.00 | 0.00 | 0.00 | 44 | 1015.8 |
| 20260504175059 | 22 | 315 | 0.0 | 0.0 | 0.00 | 0.00 | 0.00 | 47 | 1015.8 |
| 20260504174958 | 22 | 334 | 0.0 | 0.0 | 0.00 | 0.00 | 0.00 | 45 | 1015.9 |
| 20260504174858 | 22 | 227 | 0.0 | 0.0 | 0.00 | 0.00 | 0.00 | 45 | 1015.9 |
| 20260504174759 | 21 | 166 | 0.0 | 0.0 | 0.00 | 0.00 | 0.00 | 45 | 1015.9 |
| 20260504174659 | 21 | 178 | 0.0 | 0.0 | 0.00 | 0.00 | 0.00 | 46 | 1015.9 |
| 20260504174558 | 21 | 317 | 0.0 | 0.0 | 0.00 | 0.00 | 0.00 | 46 | 1015.9 |
| 20260504174453 | 21 | 309 | 0.0 | 0.0 | 0.00 | 0.00 | 0.00 | 45 | 1015.9 |
| 20260504174351 | 21 | 278 | 0.0 | 0.0 | 0.00 | 0.00 | 0.00 | 44 | 1015.9 |
| 20260504174251 | 21 | 163 | 0.0 | 0.0 | 0.00 | 0.00 | 0.00 | 45 | 1015.9 |
| 20260504174150 | 21 | 169 | 0.0 | 0.0 | 0.00 | 0.00 | 0.00 | 46 | 1016.0 |
| 20260504174052 | 21 | 67 | 0.0 | 0.0 | 0.00 | 0.00 | 0.00 | 47 | 1015.9 |
| 20260504173944 | 21 | 302 | 0.0 | 0.0 | 0.00 | 0.00 | 0.00 | 45 | 1015.9 |
| 20260504173844 | 21 | 312 | 0.0 | 0.0 | 0.00 | 0.00 | 0.00 | 45 | 1016.0 |
| 20260504173744 | 21 | 317 | 0.0 | 0.0 | 0.00 | 0.00 | 0.00 | 45 | 1016.0 |
| 20260504173645 | 21 | 169 | 0.0 | 0.0 | 0.00 | 0.00 | 0.00 | 46 | 1015.9 |
| 20260504173545 | 21 | 237 | 0.0 | 0.0 | 0.00 | 0.00 | 0.00 | 44 | 1016.0 |
| 20260504173441 | 21 | 224 | 0.0 | 0.0 | 0.00 | 0.00 | 0.00 | 45 | 1015.9 |
| 20260504173338 | 21 | 212 | 0.0 | 0.0 | 0.00 | 0.00 | 0.00 | 46 | 1016.0 |
| 20260504173238 | 21 | 44 | 0.0 | 0.0 | 0.00 | 0.00 | 0.00 | 46 | 1016.0 |
| 20260504173139 | 21 | 324 | 0.0 | 0.0 | 0.00 | 0.00 | 0.00 | 46 | 1016.0 |
| 20260504173038 | 21 | 336 | 0.0 | 0.0 | 0.00 | 0.00 | 0.00 | 47 | 1016.0 |
| 20260504172939 | 21 | 281 | 0.0 | 0.0 | 0.00 | 0.00 | 0.00 | 45 | 1016.0 |
| 20260504172838 | 21 | 329 | 0.0 | 0.0 | 0.00 | 0.00 | 0.00 | 45 | 1015.9 |
| 20260504172737 | 21 | 311 | 0.0 | 0.0 | 0.00 | 0.00 | 0.00 | 45 | 1016.0 |
| 20260504172636 | 21 | 331 | 0.0 | 0.0 | 0.00 | 0.00 | 0.00 | 45 | 1016.1 |
| 20260504172536 | 21 | 302 | 0.0 | 0.0 | 0.00 | 0.00 | 0.00 | 45 | 1016.0 |
| 20260504172434 | 21 | 288 | 0.0 | 0.0 | 0.00 | 0.00 | 0.00 | 45 | 1016.1 |
| 20260504172335 | 21 | 296 | 0.0 | 0.0 | 0.00 | 0.00 | 0.00 | 44 | 1016.1 |
| 20260504172232 | 22 | 286 | 0.0 | 0.0 | 0.00 | 0.00 | 0.00 | 44 | 1016.0 |
| 20260504172133 | 22 | 225 | 0.0 | 0.0 | 0.00 | 0.00 | 0.00 | 46 | 1016.1 |
| 20260504172033 | 21 | 169 | 0.0 | 0.0 | 0.00 | 0.00 | 0.00 | 44 | 1016.0 |
| 20260504171932 | 21 | 199 | 0.0 | 0.0 | 0.00 | 0.00 | 0.00 | 45 | 1016.0 |
| 20260504171833 | 21 | 82 | 0.0 | 0.0 | 0.00 | 0.00 | 0.00 | 46 | 1016.0 |
| 20260504171734 | 21 | 128 | 0.0 | 0.0 | 0.00 | 0.00 | 0.00 | 46 | 1016.0 |
| 20260504171630 | 21 | 297 | 0.0 | 0.0 | 0.00 | 0.00 | 0.00 | 46 | 1015.9 |
| 20260504171532 | 21 | 277 | 0.0 | 0.0 | 0.00 | 0.00 | 0.00 | 45 | 1016.0 |
| 20260504171430 | 21 | 82 | 0.0 | 0.0 | 0.00 | 0.00 | 0.00 | 45 | 1016.0 |
| 20260504171332 | 21 | 321 | 0.0 | 0.0 | 0.00 | 0.00 | 0.00 | 46 | 1016.0 |
| 20260504171228 | 21 | 346 | 0.0 | 0.0 | 0.00 | 0.00 | 0.00 | 44 | 1016.0 |
| 20260504171126 | 21 | 299 | 0.0 | 0.0 | 0.00 | 0.00 | 0.00 | 45 | 1016.1 |
| 20260504171026 | 21 | 167 | 0.0 | 0.0 | 0.00 | 0.00 | 0.00 | 45 | 1016.1 |
| 20260504170925 | 21 | 301 | 0.0 | 0.0 | 0.00 | 0.00 | 0.00 | 45 | 1016.0 |
| 20260504170825 | 21 | 355 | 0.0 | 0.0 | 0.00 | 0.00 | 0.00 | 45 | 1016.0 |
| 20260504170720 | 21 | 329 | 0.0 | 0.0 | 0.00 | 0.00 | 0.00 | 47 | 1016.1 |
| 20260504170621 | 21 | 328 | 0.0 | 0.0 | 0.00 | 0.00 | 0.00 | 47 | 1016.0 |
| 20260504170521 | 21 | 346 | 0.0 | 0.0 | 0.00 | 0.00 | 0.00 | 47 | 1016.0 |
| 20260504170421 | 21 | 346 | 0.0 | 0.0 | 0.00 | 0.00 | 0.00 | 48 | 1016.0 |
| 20260504170319 | 21 | 281 | 0.0 | 0.0 | 0.00 | 0.00 | 0.00 | 49 | 1016.1 |
| 20260504170219 | 21 | 207 | 0.0 | 0.0 | 0.00 | 0.00 | 0.00 | 47 | 1016.1 |
| 20260504170117 | 21 | 187 | 0.0 | 0.0 | 0.00 | 0.00 | 0.00 | 48 | 1016.0 |
| 20260504160420 | 20 | 283 | 0.0 | 0.0 | 0.00 | 0.00 | 0.00 | 47 | 1016.9 |
| 20260504160319 | 20 | 306 | 0.0 | 0.0 | 0.00 | 0.00 | 0.00 | 50 | 1016.7 |
| 20260504160220 | 20 | 319 | 0.0 | 0.0 | 0.00 | 0.00 | 0.00 | 50 | 1016.9 |
| 20260504160119 | 20 | 321 | 0.0 | 0.0 | 0.00 | 0.00 | 0.00 | 50 | 1016.9 |
| 20260504151107 | 18 | 334 | 0.0 | 0.0 | 0.00 | 0.00 | 0.00 | 46 | 1017.8 |
| 20260504151008 | 18 | 315 | 0.0 | 0.0 | 0.00 | 0.00 | 0.00 | 47 | 1017.8 |
| 20260504150907 | 18 | 298 | 0.0 | 0.0 | 0.00 | 0.00 | 0.00 | 46 | 1017.8 |
| 20260504150808 | 18 | 355 | 0.0 | 0.0 | 0.00 | 0.00 | 0.00 | 48 | 1017.8 |
| 20260504150707 | 18 | 308 | 0.0 | 0.0 | 0.00 | 0.00 | 0.00 | 46 | 1017.9 |
| 20260504150606 | 18 | 299 | 0.0 | 0.0 | 0.00 | 0.00 | 0.00 | 47 | 1017.8 |
| 20260504150508 | 18 | 294 | 0.0 | 0.0 | 0.00 | 0.00 | 0.00 | 46 | 1017.7 |
| 20260504150408 | 18 | 257 | 0.0 | 0.0 | 0.00 | 0.00 | 0.00 | 47 | 1017.8 |
| 20260504150308 | 18 | 303 | 0.0 | 0.0 | 0.00 | 0.00 | 0.00 | 47 | 1017.8 |
| 20260504150207 | 18 | 308 | 0.0 | 0.0 | 0.00 | 0.00 | 0.00 | 47 | 1017.7 |
| 20260504150107 | 18 | 275 | 0.0 | 0.0 | 0.00 | 0.00 | 0.00 | 46 | 1017.7 |
| 20260504141258 | 17 | 218 | 3.2 | 9.7 | 0.00 | 0.00 | 0.00 | 49 | 1017.4 |
| 20260504141158 | 17 | 219 | 3.2 | 9.7 | 0.00 | 0.00 | 0.00 | 49 | 1017.3 |
| 20260504141058 | 17 | 215 | 3.2 | 9.7 | 0.00 | 0.00 | 0.00 | 48 | 1017.2 |
| 20260504140959 | 17 | 212 | 4.8 | 9.7 | 0.00 | 0.00 | 0.00 | 48 | 1017.2 |
| 20260504140859 | 17 | 211 | 4.8 | 9.7 | 0.00 | 0.00 | 0.00 | 49 | 1017.3 |
| 20260504140759 | 17 | 294 | 4.8 | 11.3 | 0.00 | 0.00 | 0.00 | 47 | 1017.2 |
| 20260504140659 | 16 | 276 | 4.8 | 11.3 | 0.00 | 0.00 | 0.00 | 48 | 1017.3 |
| 20260504140559 | 16 | 275 | 4.8 | 11.3 | 0.00 | 0.00 | 0.00 | 49 | 1017.3 |
| 20260504140459 | 17 | 294 | 4.8 | 11.3 | 0.00 | 0.00 | 0.00 | 47 | 1017.2 |
| 20260504140359 | 17 | 290 | 3.2 | 11.3 | 0.00 | 0.00 | 0.00 | 48 | 1017.4 |
| 20260504140259 | 16 | 307 | 3.2 | 11.3 | 0.00 | 0.00 | 0.00 | 49 | 1017.2 |
| 20260504140200 | 16 | 305 | 3.2 | 11.3 | 0.00 | 0.00 | 0.00 | 50 | 1017.3 |
| 20260504130749 | 16 | 261 | 0.0 | 0.0 | 0.00 | 0.00 | 0.00 | 51 | 1017.0 |
| 20260504130650 | 16 | 349 | 0.0 | 1.6 | 0.00 | 0.00 | 0.00 | 51 | 1016.9 |
| 20260504130550 | 16 | 278 | 0.0 | 1.6 | 0.00 | 0.00 | 0.00 | 50 | 1016.9 |
| 20260504130450 | 16 | 283 | 0.0 | 1.6 | 0.00 | 0.00 | 0.00 | 51 | 1016.9 |
| 20260504130350 | 16 | 284 | 0.0 | 1.6 | 0.00 | 0.00 | 0.00 | 51 | 1016.9 |
| 20260504130247 | 16 | 233 | 0.0 | 1.6 | 0.00 | 0.00 | 0.00 | 52 | 1016.7 |
| 20260504130147 | 15 | 298 | 0.0 | 4.8 | 0.00 | 0.00 | 0.00 | 55 | 1016.7 |
| 20260504120318 | 13 | 336 | 1.6 | 4.8 | 0.00 | 0.00 | 0.00 | 57 | 1016.6 |
| 20260504120214 | 13 | 336 | 1.6 | 4.8 | 0.00 | 0.00 | 0.00 | 56 | 1016.6 |
| 20260504120115 | 13 | 336 | 1.6 | 4.8 | 0.00 | 0.00 | 0.00 | 57 | 1016.7 |
| 20260504110659 | 11 | 242 | 0.0 | 3.2 | 0.00 | 0.00 | 0.00 | 60 | 1016.4 |
| 20260504110549 | 11 | 242 | 0.0 | 3.2 | 0.00 | 0.00 | 0.00 | 59 | 1016.4 |
| 20260504110451 | 11 | 248 | 0.0 | 3.2 | 0.00 | 0.00 | 0.00 | 59 | 1016.4 |
| 20260504110349 | 11 | 248 | 0.0 | 3.2 | 0.00 | 0.00 | 0.00 | 59 | 1016.4 |
| 20260504110249 | 11 | 248 | 0.0 | 3.2 | 0.00 | 0.00 | 0.00 | 59 | 1016.4 |
| 20260504110149 | 11 | 248 | 0.0 | 3.2 | 0.00 | 0.00 | 0.00 | 59 | 1016.4 |
| 20260504100532 | 11 | 274 | 4.8 | 14.5 | 0.00 | 0.00 | 0.00 | 58 | 1016.4 |
| 20260504100426 | 11 | 290 | 6.4 | 14.5 | 0.00 | 0.00 | 0.00 | 58 | 1016.4 |
| 20260504100326 | 11 | 307 | 6.4 | 14.5 | 0.00 | 0.00 | 0.00 | 57 | 1016.3 |
| 20260504100225 | 11 | 307 | 6.4 | 14.5 | 0.00 | 0.00 | 0.00 | 57 | 1016.4 |
| 20260504100124 | 11 | 304 | 8.0 | 14.5 | 0.00 | 0.00 | 0.00 | 57 | 1016.5 |
| 20260504081958 | 10 | 225 | 0.0 | 3.2 | 0.00 | 0.00 | 0.00 | 52 | 1016.3 |
| 20260504081856 | 10 | 225 | 0.0 | 3.2 | 0.00 | 0.00 | 0.00 | 52 | 1016.2 |
| 20260504081758 | 10 | 225 | 0.0 | 3.2 | 0.00 | 0.00 | 0.00 | 53 | 1016.2 |
| 20260504081651 | 10 | 225 | 0.0 | 3.2 | 0.00 | 0.00 | 0.00 | 52 | 1016.3 |
| 20260504081550 | 10 | 225 | 0.0 | 3.2 | 0.00 | 0.00 | 0.00 | 52 | 1016.3 |
| 20260504081451 | 10 | 225 | 0.0 | 3.2 | 0.00 | 0.00 | 0.00 | 52 | 1016.3 |
| 20260504081350 | 10 | 225 | 0.0 | 3.2 | 0.00 | 0.00 | 0.00 | 53 | 1016.3 |
| 20260504081247 | 10 | 225 | 0.0 | 3.2 | 0.00 | 0.00 | 0.00 | 52 | 1016.3 |
| 20260504081146 | 10 | 225 | 0.0 | 3.2 | 0.00 | 0.00 | 0.00 | 52 | 1016.3 |
| 20260504081046 | 10 | 225 | 0.0 | 3.2 | 0.00 | 0.00 | 0.00 | 52 | 1016.3 |
| 20260504080944 | 10 | 225 | 0.0 | 3.2 | 0.00 | 0.00 | 0.00 | 52 | 1016.3 |
| 20260504080844 | 10 | 225 | 0.0 | 3.2 | 0.00 | 0.00 | 0.00 | 52 | 1016.3 |
| 20260504080742 | 10 | 225 | 0.0 | 3.2 | 0.00 | 0.00 | 0.00 | 52 | 1016.2 |
| 20260504080642 | 10 | 225 | 0.0 | 3.2 | 0.00 | 0.00 | 0.00 | 53 | 1016.3 |
| 20260504080550 | 10 | 225 | 0.0 | 3.2 | 0.00 | 0.00 | 0.00 | 53 | 1016.3 |
| 20260504080439 | 10 | 225 | 0.0 | 3.2 | 0.00 | 0.00 | 0.00 | 52 | 1016.2 |
| 20260504080343 | 10 | 225 | 0.0 | 3.2 | 0.00 | 0.00 | 0.00 | 52 | 1016.2 |
| 20260504080235 | 10 | 225 | 0.0 | 3.2 | 0.00 | 0.00 | 0.00 | 52 | 1016.3 |
| 20260504080130 | 10 | 225 | 0.0 | 3.2 | 0.00 | 0.00 | 0.00 | 53 | 1016.2 |
| 20260504070412 | 10 | 205 | 1.6 | 3.2 | 0.00 | 0.00 | 0.00 | 64 | 1016.5 |
| 20260504070308 | 10 | 205 | 1.6 | 3.2 | 0.00 | 0.00 | 0.00 | 64 | 1016.3 |
| 20260504070210 | 10 | 205 | 1.6 | 3.2 | 0.00 | 0.00 | 0.00 | 64 | 1016.4 |
| 20260504070108 | 10 | 205 | 1.6 | 3.2 | 0.00 | 0.00 | 0.00 | 65 | 1016.3 |
| 20260504060212 | 10 | 201 | 0.0 | 0.0 | 0.00 | 0.00 | 0.00 | 61 | 1016.3 |
| 20260504060109 | 10 | 201 | 0.0 | 0.0 | 0.00 | 0.00 | 0.00 | 61 | 1016.4 |
| 20260504050731 | 10 | 201 | 0.0 | 0.0 | 0.00 | 0.00 | 0.00 | 55 | 1016.7 |
| 20260504050631 | 10 | 201 | 0.0 | 0.0 | 0.00 | 0.00 | 0.00 | 55 | 1016.9 |
| 20260504050532 | 10 | 201 | 0.0 | 0.0 | 0.00 | 0.00 | 0.00 | 55 | 1016.7 |
| 20260504050432 | 11 | 201 | 0.0 | 0.0 | 0.00 | 0.00 | 0.00 | 55 | 1016.7 |
| 20260504050332 | 11 | 201 | 0.0 | 0.0 | 0.00 | 0.00 | 0.00 | 55 | 1016.9 |
| 20260504050231 | 11 | 201 | 0.0 | 0.0 | 0.00 | 0.00 | 0.00 | 55 | 1016.7 |
| 20260504050131 | 11 | 201 | 0.0 | 0.0 | 0.00 | 0.00 | 0.00 | 56 | 1016.7 |
| 20260504045931 | 11 | 201 | 0.0 | 1.6 | 0.00 | 0.00 | 0.00 | 55 | 1016.7 |
| 20260504045831 | 11 | 201 | 0.0 | 1.6 | 0.00 | 0.00 | 0.00 | 56 | 1016.7 |
| 20260504045732 | 11 | 201 | 0.0 | 1.6 | 0.00 | 0.00 | 0.00 | 56 | 1016.7 |
| 20260504045631 | 11 | 201 | 0.0 | 1.6 | 0.00 | 0.00 | 0.00 | 56 | 1016.7 |
| 20260504045531 | 11 | 201 | 0.0 | 1.6 | 0.00 | 0.00 | 0.00 | 56 | 1016.7 |
| 20260504045432 | 11 | 201 | 0.0 | 1.6 | 0.00 | 0.00 | 0.00 | 56 | 1016.9 |
| 20260504045332 | 11 | 201 | 0.0 | 1.6 | 0.00 | 0.00 | 0.00 | 56 | 1016.6 |
| 20260504045232 | 11 | 201 | 0.0 | 1.6 | 0.00 | 0.00 | 0.00 | 56 | 1016.7 |
| 20260504045132 | 11 | 201 | 0.0 | 1.6 | 0.00 | 0.00 | 0.00 | 56 | 1016.9 |
| 20260504045031 | 11 | 201 | 0.0 | 1.6 | 0.00 | 0.00 | 0.00 | 56 | 1016.7 |
| 20260504044931 | 11 | 201 | 0.0 | 1.6 | 0.00 | 0.00 | 0.00 | 57 | 1016.7 |
| 20260504044831 | 11 | 201 | 0.0 | 1.6 | 0.00 | 0.00 | 0.00 | 57 | 1016.9 |
| 20260504044732 | 11 | 201 | 0.0 | 1.6 | 0.00 | 0.00 | 0.00 | 58 | 1016.9 |
| 20260504044632 | 11 | 201 | 0.0 | 1.6 | 0.00 | 0.00 | 0.00 | 58 | 1016.9 |
| 20260504044532 | 11 | 201 | 0.0 | 1.6 | 0.00 | 0.00 | 0.00 | 58 | 1016.6 |
| 20260504044431 | 11 | 201 | 0.0 | 1.6 | 0.00 | 0.00 | 0.00 | 58 | 1016.7 |
| 20260504044333 | 11 | 201 | 0.0 | 1.6 | 0.00 | 0.00 | 0.00 | 59 | 1016.6 |
| 20260504044232 | 11 | 201 | 0.0 | 1.6 | 0.00 | 0.00 | 0.00 | 59 | 1016.6 |
| 20260504044130 | 11 | 201 | 0.0 | 1.6 | 0.00 | 0.00 | 0.00 | 60 | 1016.7 |
| 20260504044032 | 11 | 201 | 0.0 | 1.6 | 0.00 | 0.00 | 0.00 | 60 | 1016.7 |
| 20260504043931 | 11 | 201 | 0.0 | 1.6 | 0.00 | 0.00 | 0.00 | 60 | 1016.7 |
| 20260504043832 | 11 | 201 | 0.0 | 0.0 | 0.00 | 0.00 | 0.00 | 61 | 1016.6 |
| 20260504043732 | 11 | 201 | 0.0 | 0.0 | 0.00 | 0.00 | 0.00 | 61 | 1016.7 |
| 20260504043632 | 11 | 201 | 0.0 | 0.0 | 0.00 | 0.00 | 0.00 | 62 | 1016.6 |
| 20260504043528 | 11 | 201 | 0.0 | 0.0 | 0.00 | 0.00 | 0.00 | 62 | 1016.6 |
| 20260504043427 | 11 | 201 | 0.0 | 0.0 | 0.00 | 0.00 | 0.00 | 62 | 1016.5 |
| 20260504043328 | 11 | 201 | 0.0 | 0.0 | 0.00 | 0.00 | 0.00 | 62 | 1016.4 |
| 20260504043229 | 11 | 201 | 0.0 | 0.0 | 0.00 | 0.00 | 0.00 | 62 | 1016.5 |
| 20260504043128 | 11 | 201 | 0.0 | 0.0 | 0.00 | 0.00 | 0.00 | 62 | 1016.6 |
| 20260504043028 | 11 | 201 | 0.0 | 0.0 | 0.00 | 0.00 | 0.00 | 62 | 1016.5 |
| 20260504042926 | 11 | 201 | 0.0 | 0.0 | 0.00 | 0.00 | 0.00 | 62 | 1016.5 |
| 20260504042828 | 11 | 201 | 0.0 | 0.0 | 0.00 | 0.00 | 0.00 | 62 | 1016.6 |
| 20260504042727 | 11 | 201 | 0.0 | 0.0 | 0.00 | 0.00 | 0.00 | 62 | 1016.5 |
| 20260504042628 | 11 | 201 | 0.0 | 0.0 | 0.00 | 0.00 | 0.00 | 62 | 1016.6 |
| 20260504042528 | 11 | 201 | 0.0 | 0.0 | 0.00 | 0.00 | 0.00 | 62 | 1016.5 |
| 20260504042427 | 11 | 201 | 0.0 | 0.0 | 0.00 | 0.00 | 0.00 | 62 | 1016.6 |
| 20260504042329 | 11 | 201 | 0.0 | 0.0 | 0.00 | 0.00 | 0.00 | 61 | 1016.7 |
| 20260504042227 | 11 | 201 | 0.0 | 0.0 | 0.00 | 0.00 | 0.00 | 61 | 1016.6 |
| 20260504042127 | 11 | 201 | 0.0 | 0.0 | 0.00 | 0.00 | 0.00 | 62 | 1016.6 |
| 20260504042028 | 11 | 201 | 0.0 | 0.0 | 0.00 | 0.00 | 0.00 | 61 | 1016.5 |
| 20260504041927 | 11 | 201 | 0.0 | 0.0 | 0.00 | 0.00 | 0.00 | 61 | 1016.5 |
| 20260504041828 | 11 | 201 | 0.0 | 0.0 | 0.00 | 0.00 | 0.00 | 61 | 1016.6 |
| 20260504041727 | 11 | 201 | 0.0 | 0.0 | 0.00 | 0.00 | 0.00 | 61 | 1016.6 |
| 20260504041627 | 11 | 201 | 0.0 | 0.0 | 0.00 | 0.00 | 0.00 | 61 | 1016.5 |
| 20260504041528 | 11 | 201 | 0.0 | 1.6 | 0.00 | 0.00 | 0.00 | 61 | 1016.6 |
| 20260504041427 | 11 | 201 | 0.0 | 1.6 | 0.00 | 0.00 | 0.00 | 61 | 1016.5 |
| 20260504041327 | 11 | 201 | 0.0 | 1.6 | 0.00 | 0.00 | 0.00 | 62 | 1016.5 |
| 20260504041227 | 11 | 201 | 0.0 | 1.6 | 0.00 | 0.00 | 0.00 | 61 | 1016.6 |
| 20260504041127 | 11 | 201 | 0.0 | 1.6 | 0.00 | 0.00 | 0.00 | 61 | 1016.5 |
| 20260504041027 | 11 | 201 | 0.0 | 1.6 | 0.00 | 0.00 | 0.00 | 61 | 1016.5 |
| 20260504040927 | 11 | 201 | 0.0 | 1.6 | 0.00 | 0.00 | 0.00 | 61 | 1016.6 |
| 20260504040827 | 11 | 201 | 0.0 | 1.6 | 0.00 | 0.00 | 0.00 | 61 | 1016.6 |
| 20260504040727 | 11 | 201 | 0.0 | 1.6 | 0.00 | 0.00 | 0.00 | 61 | 1016.5 |
| 20260504040627 | 11 | 201 | 0.0 | 1.6 | 0.00 | 0.00 | 0.00 | 61 | 1016.6 |
| 20260504040528 | 11 | 201 | 0.0 | 1.6 | 0.00 | 0.00 | 0.00 | 61 | 1016.5 |
| 20260504040427 | 11 | 201 | 0.0 | 1.6 | 0.00 | 0.00 | 0.00 | 61 | 1016.6 |